GFSMA_prec_radar_072.txt.gz
Reflectivity
-20 -20 -20 -20 -20 -20 -20 -20 -20 -20 -20 -20 -20 -20 -20 -20 -20 -20 -20 -20 -20 -20 -20 -20 -20 -20 -20 -20 -20 -20 -20 -20 -20 -20 -20 -20 -20 -20 -20 -20 -20 -20 -20
-20 -20 -20 -20 -20 -20 -20 -20 -20 -20 -20 -20 -20 -20 -20 -20 -20 -20 -20 -20 -20 -20 -20 -20 -20 -20 -20 -20 -20 -20 -20 -20 -20 -20 -20 -20 -20 -20 -20 -20 -20 -20 -20
-20 -20 -20 -20 -20 -20 -20 -20 -20 -20 -20 -20 -20 -20 -20 -20 -20 -20 -20 -20 -20 -20 -20 -20 -20 -20 -20 -20 -20 -20 -20 -20 -20 -20 -20 -20 -20 -20 -20 -20 -20 -20 -20
-20 -20 -20 -20 -20 -20 -20 -20 -20 -20 -20 -20 -20 -20 -20 -20 -20 -20 -20 -20 -20 -20 -20 -20 -20 -20 -20 -20 -20 -20 -20 -20 -20 -20 -20 -20 -20 -20 -20 -20 -20 -20 -20
-20 -20 -20 -20 -20 -20 -20 -20 -20 -20 -20 -20 -20 -20 -20 -20 -20 -20 -20 -20 -20 -20 -20 -20 -20 -20 -20 -20 -20 -20 -20 -20 -20 -20 -20 -20 -20 -20 -20 -20 -20 -20 -20
-20 -20 -20 -20 -20 -20 -20 -20 -20 -20 -20 -20 -20 -20 -20 -20 -20 -20 -20 -20 -20 -20 -20 -20 -20 -20 -20 -20 -20 -20 -20 -20 -20 -20 -20 -20 -20 -20 -20 -20 -20 -20 -20
-20 -20 -20 -20 -20 -20 -20 -20 -20 -20 -20 -20 -20 -20 -20 -20 -20 -20 -20 -20 -20 -20 -20 -20 -20 -20 -20 -20 -20 -20 -20 -20 -20 -20 -20 -20 -20 -20 -20 -20 -20 -20 -20
-20 -20 -20 -20 -20 -20 -20 -20 -15 -20 -20 -20 -20 -20 -20 -20 -20 -20 -20 -20 -20 -20 -20 -20 -20 -20 -20 -20 -20 -20 -20 -20 -20 -20 -20 -20 -20 -20 -20 -20 -20 -20 -20
-20 6 -20 -20 9 -20 -20 -20 28 22 -20 -20 -20 -20 -20 -20 -20 -20 -16 -17 -20 -20 -20 -20 -20 -20 -20 -20 -20 -20 -20 -20 -20 -20 -20 -20 -20 -20 -20 -20 -20 -20 -20
-20 -11 17 -4 -13 24 -20 24 20 28 26 -17 26 -13 -20 -20 -20 -20 -20 -20 9 -17 -20 -20 -20 -20 -20 -20 -20 -20 -20 -20 -20 -20 -20 -20 -20 -20 -20 -20 -20 -20 -20
-20 -20 -20 1 -20 -20 -19 -20 -20 -11 27 24 -20 24 20 3 14 17 -7 -19 7 15 -4 -20 -19 -17 -20 -20 -20 -20 -13 0 -8 -20 -20 -20 -20 -14 -20 -20 -20 -20 -20
-15 9 -20 -20 -19 22 20 12 1 11 -20 -11 -19 -14 27 23 22 19 18 15 16 9 5 -6 -10 -7 -14 -16 -3 -16 -20 -20 8 -9 -2 -3 -20 9 -15 -20 -20 -20 -20
-20 7 -4 -13 -1 7 12 11 10 13 16 17 -15 -20 27 27 24 21 19 15 14 7 2 15 35 20 -10 19 17 36 25 29 19 27 21 11 14 -20 -16 -15 -20 -20 -20
-20 -20 -20 -20 -17 0 5 14 15 16 16 25 14 23 21 18 20 25 7 -15 23 17 27 -2 15 16 28 43 40 32 21 30 26 10 5 10 20 11 3 7 -20 -20 -20
-20 -20 -20 -20 -20 8 7 -1 14 11 5 15 17 22 20 21 19 22 14 8 14 22 19 20 26 39 33 36 38 34 15 27 12 7 13 -2 -20 -20 -20 -20 -20 -20 -20
-20 -20 -20 -20 -20 -6 13 2 6 -0 15 8 18 21 22 20 20 15 18 21 21 21 25 31 23 36 32 29 34 22 2 3 1 1 -19 -20 -20 -20 -20 -20 -20 -20 -20
-20 -20 -20 -20 -8 -20 -20 -20 -20 -20 -8 8 8 13 9 13 18 15 20 25 22 5 5 31 22 22 36 7 -13 4 12 -19 -19 -17 -19 -20 -20 -20 -20 -20 -20 -20 -2
-20 -20 -20 -20 -20 -20 -20 -20 -20 -20 -16 3 -14 -20 5 7 12 16 15 14 16 7 -13 12 11 7 -20 -14 -15 -18 -1 -20 -20 -20 -20 -20 -20 -20 -20 -20 -20 -20 -3
-20 -20 -20 -20 -20 -20 -20 -20 -20 -20 8 -1 13 -3 -20 -20 -19 -9 9 13 -11 -15 -5 18 -6 -20 -20 -20 -20 -20 -20 -20 -20 -20 -20 -20 -20 -20 -20 -20 -20 -20 -19
-20 -20 -20 -20 -20 -20 -20 -20 -20 -20 -5 3 10 12 9 -20 -20 -19 3 21 1 10 -0 -20 -20 -20 -20 -20 -20 -20 -19 -17 -20 -20 -20 -20 -20 -20 -20 -20 -20 -20 -20
-20 -20 -20 -20 -20 -20 -20 -20 -20 -20 -18 -7 14 10 14 15 11 16 32 37 -1 -20 -19 -12 -20 -20 -19 -11 -12 -19 -20 -20 -20 -20 -20 -20 -20 -20 -20 -20 -20 -20 -20
-20 -20 -20 -20 -20 -3 -6 -17 -20 -20 -20 10 -8 9 8 21 26 33 12 25 13 -16 -12 -3 -15 -3 -8 -20 -20 -20 -20 -20 -20 -20 -20 -20 -20 -20 -20 -20 -20 -20 -20
-16 -20 -20 -20 -20 -20 -2 -20 -20 -20 -20 -19 -12 -0 20 29 29 12 21 14 -2 4 -3 -11 -19 -20 -20 -20 -20 -20 -20 -20 -20 -20 -20 -20 -20 -20 -20 -20 -20 -20 -20
-20 -20 -12 -20 -20 -2 -8 -20 -20 -20 -20 -20 -20 3 6 7 4 -7 -19 -20 -20 -20 -20 -20 -20 -20 -20 -20 -20 -20 -20 -20 -20 -20 -20 -20 -20 -20 -20 -20 -20 -20 -20
-10 -20 -20 -20 -20 -20 -20 -20 -20 -20 -20 -20 -20 -20 -20 -20 -15 -19 -19 -19 -19 -20 -20 -20 -20 -20 -20 -20 -20 -20 -20 -20 -20 -20 -20 -20 -20 -20 -20 -20 -20 -20 -20
-20 -20 -20 -20 -20 -20 -20 -20 -20 -20 -20 -20 -20 -20 -20 -20 -20 -20 -20 -20 -20 -20 -20 -20 -20 -20 -20 -20 -20 -20 -20 -20 -20 -20 -20 -20 -20 -20 -20 -20 -20 -20 -20

GFSMA_prec_radar_075.txt.gz
Reflectivity
-20 -20 -20 -20 -20 -20 -20 -20 -20 -20 -20 -20 -20 -20 -20 -20 -20 -20 -20 -20 -20 -20 -20 -20 -20 -20 -20 -20 -20 -20 -20 -20 -20 -20 -20 -20 -20 -20 -20 -20 -20 -20 -20
-20 -20 -20 -20 -20 -20 -20 -20 -20 -20 -20 -20 -20 -20 -20 -20 -20 -20 -20 -20 -20 -20 -20 -20 -20 -20 -20 -20 -20 -20 -20 -20 -20 -20 -20 -20 -20 -20 -20 -20 -20 -20 -20
-20 -20 -20 -20 -20 -20 -20 -20 -20 -20 -20 -20 -20 -20 -20 -20 -20 -20 -20 -20 -20 -20 -20 -20 -20 -20 -20 -20 -20 -20 -20 -20 -20 -20 -20 -20 -20 -20 -20 -20 -20 -20 -20
-20 -20 -20 -20 -20 -20 -20 -20 -20 -20 -20 -20 -20 -20 -20 -20 -20 -20 -20 -20 -20 -20 -20 -20 -20 -20 -20 -20 -20 -20 -20 -20 -20 -20 -20 -20 -20 -20 -20 -20 -20 -20 -20
-20 -20 -20 -20 -20 -20 -20 -20 -20 -20 -20 -20 -20 -20 -20 -20 -20 -20 -20 -20 -20 -20 -20 -20 -20 -20 -20 -20 -20 -20 -20 -20 -20 -20 -20 -20 -20 -20 -20 -20 -20 -20 -20
-20 -20 -20 -20 -20 -20 -20 -20 -20 -20 -20 -20 -20 -20 -20 -20 -20 -20 -20 -20 -20 -20 -20 -20 -20 -20 -20 -20 -20 -20 -20 -20 -20 -20 -20 -20 -20 -20 -20 -20 -20 -20 -20
-20 -20 -20 -20 -20 -20 -20 -20 -20 -20 -20 -20 -20 -20 -20 -20 -20 -20 -20 -20 -20 -20 -20 -13 -20 -20 -20 -20 -20 -20 -20 -20 -20 -20 -20 -20 -20 -20 -20 -20 -20 -20 -20
-20 -20 -20 -20 -20 -20 -20 -20 -20 -20 -15 -20 -20 -20 -20 -20 -20 -20 -20 -20 -20 -20 -20 6 -14 -2 -3 -20 -20 -20 -20 -20 -20 -20 -20 -20 -20 -20 -20 -20 -20 -20 -20
12 -20 -20 -20 -20 -20 -20 -20 4 -20 9 -12 -20 -20 -20 -20 -20 -20 -20 -20 -20 -20 -20 -20 -15 8 18 4 -10 -20 -20 -20 -18 -20 -20 -20 -20 -20 -20 -20 -20 -20 -20
-12 13 15 -1 -12 -20 -20 -20 -20 9 19 10 17 -20 -20 -20 -20 -20 -3 17 21 -6 -20 -20 -7 -12 14 -19 -20 22 17 2 -20 -20 -20 -20 -10 -3 0 -18 -20 -20 -20
-20 -20 -20 -20 -20 -17 -19 -20 -19 -20 -20 11 -20 26 20 19 -20 16 -0 16 8 22 28 28 11 -5 -9 11 4 -6 23 31 16 14 14 20 -16 7 -20 -19 -20 -20 -20
-18 -20 -20 -17 -9 -11 -7 2 6 12 13 22 -0 -15 11 14 22 21 -13 16 20 10 26 26 27 28 -0 -20 -2 22 28 19 34 27 32 28 27 20 19 -17 -18 5 2
-20 -20 -20 -20 -20 -20 -20 -7 -5 14 13 16 18 22 18 2 18 18 31 20 5 3 20 27 36 18 6 34 28 37 25 35 37 40 39 31 19 8 -16 -17 -14 6 15
-20 -20 -20 -20 -20 -2 11 5 13 17 -2 15 15 17 23 27 -13 18 12 16 24 18 18 1 12 -8 25 31 33 34 37 26 30 37 37 29 13 8 1 -18 0 3 -20
-20 -20 -20 -20 -20 -7 -20 -20 -20 -10 -20 -20 -18 -19 15 9 24 24 28 27 25 20 14 15 17 37 31 20 23 26 30 28 31 27 22 9 -3 -6 -15 -19 -20 -20 -20
-20 -20 -20 -20 -20 -20 -20 -20 -20 -20 -20 -20 -20 1 -18 -4 6 5 13 7 18 30 30 15 20 25 10 26 26 28 28 17 17 12 1 -13 -11 -19 -20 -20 -20 -20 -20
-20 -20 -20 -20 -20 -20 -20 -20 -20 -20 -20 -20 -20 -20 -20 -20 -20 -19 -18 -14 -14 2 15 7 2 25 10 10 4 -4 -3 -13 -7 -8 -18 -20 -20 -20 -20 -20 -20 -15 -2
-20 -20 -20 -20 -20 -20 -20 -20 -20 -20 -20 -20 -20 -20 6 13 6 7 -19 4 -19 -5 21 6 -0 -9 7 -8 -20 -20 -20 -20 -20 -20 -20 -20 -20 -20 -20 -20 -20 -20 -20
-20 -20 -20 -20 -20 -20 -20 -20 -20 -20 -20 -20 -20 -20 -5 12 15 -13 -8 3 -20 -15 -5 16 11 5 2 -12 -7 9 -4 -20 -20 -20 -20 -20 -20 -20 -20 -20 -20 -20 -20
-20 -20 -20 -20 -20 -20 -20 -20 -20 -20 -20 -20 -20 -20 -14 -5 5 12 -13 -20 -20 -19 -11 33 29 -20 -20 -20 -20 -20 -20 -20 -20 -20 -20 -20 -20 -20 -20 -20 -20 -20 -20
-20 -20 -20 -20 -20 -20 -20 -20 -20 -20 -20 -20 -15 -18 -16 3 11 -2 -8 9 9 -2 12 10 7 -19 -20 -9 -13 -16 -20 -20 -20 -20 -20 -20 -20 -20 -20 -20 -20 -20 -20
-20 -20 -20 -20 -20 -20 -20 -20 -20 -20 -20 -20 -20 -6 -13 2 -11 2 7 13 14 32 27 16 3 8 -6 -20 -20 -20 -20 -20 -20 -20 -20 -20 -20 -20 -20 -20 -20 -20 -20
-20 -20 -7 3 -18 -16 4 -20 -20 -20 -20 -20 -20 -20 -20 -20 -20 -20 -20 -20 -12 -20 -20 -20 -20 -20 -20 -20 -20 -20 -20 -20 -20 -20 -20 -20 -20 -20 -20 -20 -20 -20 -20
-20 -1 11 -16 -20 -1 -4 -20 -20 -20 -20 -20 -20 -20 -20 -20 -20 -20 -20 -20 -20 -20 -20 -20 -20 -20 -20 -20 -20 -20 -20 -20 -20 -20 -20 -20 -20 -20 -20 -20 -20 -20 -20
-20 -8 -20 -20 -20 -20 -20 -20 -20 -20 -20 -20 -20 -20 -20 -20 -20 -20 -20 -20 -20 -20 -20 -20 -20 -20 -20 -20 -20 -20 -20 -20 -20 -20 -20 -20 -20 -20 -20 -20 -20 -20 -20
-20 -20 -20 -20 -20 -20 -20 -20 -20 -20 -20 -20 -20 -20 -20 -20 -20 -20 -20 -20 -20 -20 -20 -20 -20 -20 -20 -20 -20 -20 -20 -20 -20 -20 -20 -20 -20 -20 -20 -20 -20 -20 -20

GFSMA_prec_radar_078.txt.gz
Reflectivity
-20 -20 -20 -20 -20 -20 -20 -20 -20 -20 -20 -20 -20 -20 -20 -20 -20 -20 -20 -20 -20 -20 -20 -20 -20 -20 -20 -20 -20 -20 -20 -20 -20 -20 -20 -20 -20 -20 -20 -20 -20 -20 -20
-20 -20 -20 -20 -20 -20 -20 -20 -20 -20 -20 -20 -20 -20 -20 -20 -20 -20 -20 -20 -20 -20 -20 -20 -20 -20 -20 -20 -20 -20 -20 -20 -20 -20 -20 -20 -20 -20 -20 -20 -20 -20 -20
-20 -20 -20 -20 -20 -20 -20 -20 -20 -20 -20 -20 -20 -20 -20 -20 -20 -20 -20 -20 -20 -20 -20 -20 -20 -20 -20 -20 -20 -20 -20 -20 -20 -20 -20 -20 -20 -20 -20 -20 -20 -20 -20
-20 -20 -20 -20 -20 -20 -20 -20 -20 -20 -20 -20 -20 -20 -20 -20 -20 -20 -20 -20 -20 -20 -20 -20 -20 -20 -20 -20 -20 -20 -20 -20 -20 -20 -20 -20 -20 -20 -20 -20 -20 -20 -20
-20 -20 -20 -20 -20 -20 -20 -20 -20 -20 -20 -20 -20 -20 -20 -20 -20 -20 -20 -20 -20 -20 -20 -20 -20 -20 -20 -20 -20 -20 -20 -20 -20 -20 -20 -20 -20 -20 -20 -20 -20 -20 -20
-20 -20 -20 -20 -20 -20 -20 -20 -20 -20 -20 -20 -20 -20 -20 -20 -20 -20 -20 -20 -20 -20 -20 -20 -20 -20 -20 -20 -20 -20 -20 -20 -20 -20 -20 -20 -20 -20 -20 -20 -20 -20 -20
-20 -20 -20 -20 -20 -20 -20 -20 -20 -20 -20 -20 -20 -20 -20 -20 -20 -20 -20 -20 -20 -20 -20 -20 -20 -20 -20 -20 -20 -9 -20 -20 -20 -20 -20 -20 -20 -20 -20 -20 -20 -20 -20
-10 -20 -20 -20 -20 -20 -20 -20 -20 -20 -20 -20 -20 -20 -20 -20 -20 -20 -20 -20 -20 -20 -20 -20 -20 -20 -20 -20 -9 16 19 18 20 -8 -20 -20 -3 -20 -20 -20 -20 -20 -20
-6 -20 -20 -8 -20 -20 -20 -20 -20 -20 -20 -20 -20 17 -20 -20 -20 -20 -20 -20 -20 -20 -20 -18 -20 -13 -16 -13 11 7 13 24 20 26 17 -20 -20 -11 -20 -20 -20 -20 -20
-20 -20 -11 -20 -20 -20 -20 -20 -20 -20 -7 -20 23 16 -16 -20 -20 -20 -20 19 -20 1 13 21 25 34 31 32 33 23 4 27 34 19 11 26 17 11 8 6 9 14 -7
-20 -20 -20 -20 -20 -20 -20 -20 -20 -10 12 12 25 14 -0 -18 2 15 -2 -20 17 17 3 -20 11 28 34 37 38 37 21 36 37 35 32 32 29 33 26 18 8 15 7
-20 -20 -20 -20 -20 -20 -11 -15 -20 5 13 22 20 21 23 23 -20 11 6 4 16 0 13 5 11 10 17 19 27 29 36 39 21 37 35 30 30 33 37 37 30 21 16
-20 -20 -20 -20 -20 -20 -20 -20 -9 -20 -15 -6 15 5 4 14 -20 -2 26 6 5 7 22 -10 6 -0 18 21 17 21 32 24 30 33 33 35 24 35 37 29 21 26 13
-20 -20 -20 -20 -20 -20 6 4 9 5 10 13 9 -17 -2 -9 -20 22 -18 -1 -10 -9 8 4 5 26 21 21 27 33 17 26 30 33 29 18 22 27 22 11 12 11 9
-20 -20 -20 -20 -20 -20 -11 -17 -20 -20 -20 2 5 -20 -20 -19 -20 -9 16 10 5 7 -15 -11 -10 13 37 24 9 30 28 28 27 24 21 19 14 22 20 18 7 -3 -20
-20 -20 -20 -20 -20 -20 -20 -20 -20 -20 -20 -20 -20 -20 -20 -20 -20 -20 -20 -16 -20 3 8 -17 -20 -15 21 25 35 32 25 20 19 16 21 11 4 -5 -6 -12 -20 -20 -20
-20 -20 -20 -20 -20 -20 -20 -20 -20 -20 -20 -7 -20 -20 -20 -20 -20 -20 9 8 13 -1 5 8 -15 -20 -11 1 6 10 18 11 10 25 10 -16 -20 -20 -20 -20 -20 -20 -20
-20 -20 -20 -20 -20 -20 -20 -20 -20 -20 -20 -20 -20 -20 -20 -20 -20 -20 -13 4 13 4 6 -20 -20 -14 -14 33 11 19 3 -12 -15 -19 -20 -20 -20 -20 -20 -20 -20 -20 -20
-20 -20 -20 -20 -20 -20 -20 -20 -20 -20 -20 -20 -20 -20 -20 -20 -20 -20 -9 2 6 10 5 -18 -20 -20 5 3 11 -6 -8 -5 -20 -20 -20 -20 -20 -20 -20 -20 -20 -20 -20
-20 -20 -20 -20 -20 -20 -20 -20 -20 -20 -20 -20 -20 -20 -20 -20 -20 -20 -20 -20 -9 2 -8 -17 -17 -18 -4 9 -18 -20 -20 -20 -20 -20 -20 -20 -20 -20 -20 -20 -20 -20 -20
-20 -20 -20 -20 -20 -20 -20 -20 -20 -20 -20 -20 -20 -20 -20 -14 -20 -20 -20 -20 -20 -20 -3 -16 -19 -11 -15 -20 -17 -20 -20 -20 -20 -20 -20 -20 -20 -20 -20 -20 -20 -20 -20
-20 -20 -20 -20 -20 -20 -20 -20 -20 -20 -20 -20 -20 -20 -20 -0 -17 4 1 -17 -20 -20 -20 -20 -20 -20 -20 -20 -20 -20 -20 -20 -20 -20 -20 -20 -20 -20 -20 -20 -20 -20 -20
-20 -20 -20 -20 -20 -19 4 -20 -20 -20 -20 -20 -20 -20 -20 -20 -20 -20 -20 -20 -20 -20 -20 -20 -20 -20 -20 -20 -20 -20 -20 -20 -20 -20 -20 -20 -20 -20 -20 -20 -20 -20 -20
5 -15 -20 -20 -20 -5 -10 -20 -20 -20 -20 -20 -20 -20 -20 -20 -20 -20 -20 -20 -20 -20 -20 -20 -20 -20 -20 -20 -20 -20 -20 -20 -20 -20 -20 -20 -20 -20 -20 -20 -20 -20 -20
-14 -20 -20 -20 -20 -20 -20 -20 -20 -20 -20 -20 -20 -20 -20 -20 -20 -20 -20 -20 -20 -20 -20 -20 -20 -20 -12 -10 0 -20 -20 -20 -20 -20 -20 -20 -20 -20 -20 -20 -20 -20 -20
-20 -20 -20 -20 -20 -20 -20 -20 -20 -20 -20 -20 -20 -20 -20 -20 -20 -20 -20 -20 -20 -20 -20 -20 -20 -20 -20 -20 -20 -20 -20 -20 -20 -20 -20 -20 -20 -19 -20 -20 -20 -20 -20

GFSMA_prec_radar_084.txt.gz
Reflectivity
-20 -20 -20 -20 -20 -20 -20 -20 -20 -20 -20 -20 -20 -20 -20 -20 -20 -20 -20 -20 -20 -20 -20 -20 -20 -20 -20 -20 -20 -20 -20 -20 -20 -20 -20 -20 -20 -20 -20 -20 -20 -20 -20
-20 -20 -20 -20 -20 -20 -20 -20 -20 -20 -20 -20 -20 -20 -20 -20 -20 -20 -20 -20 -20 -20 -20 -20 -20 -20 -20 -20 -20 -20 -20 -20 -20 -20 -20 -20 -20 -20 -20 -20 -20 -20 -20
-20 -20 -20 -20 -20 -20 -20 -20 -20 -20 -20 -20 -20 -20 -20 -20 -20 -20 -20 -20 -20 -20 -20 -20 -20 -20 -20 -20 -20 -20 -20 -20 -20 -20 -20 -20 -20 -20 -20 -20 -20 -20 -20
-20 -20 -20 -20 -20 -20 -20 -20 -20 -20 -20 -20 -20 -20 -20 -20 -20 -20 -20 -20 -20 -20 -20 -20 -20 -20 -20 -20 -20 3 -7 -20 -20 -20 -20 -20 -20 -20 -20 -20 -20 -20 -20
-20 -20 -20 -20 -20 -20 -20 -20 -20 -20 -20 -20 -20 -20 -20 -20 -20 -20 -20 -20 -20 -20 -20 -20 -20 -20 -20 -20 -20 -20 14 -10 -20 -20 -20 -20 -20 -20 -19 -10 -20 -20 -20
-20 -20 -20 -20 -20 -20 -20 -20 -20 -20 -20 -20 -20 -20 -20 -20 -20 -20 -20 -20 -20 -20 -20 -20 -20 -20 -20 -20 -20 -20 2 10 -19 -20 -20 -20 -7 -20 -20 -20 -18 -1 5
-20 -20 -20 -20 -20 -20 -20 -20 -20 -20 -20 -20 -20 -20 -20 -20 -20 -20 -20 -20 -20 -20 -20 -20 -20 -20 -20 -20 -20 -20 -20 7 0 -20 6 -15 -20 4 14 14 -0 -9 -20
-20 -20 -20 -20 -20 -20 -20 -20 -20 -20 -20 -20 -20 -20 -18 -19 -20 -20 -20 -20 -20 -20 -20 -20 -20 -20 -20 -20 -12 10 12 12 22 26 30 34 34 32 28 23 14 9 6
-20 -20 -20 -20 -20 -20 -20 -20 -20 -20 -11 -20 -20 -16 -17 7 -13 -20 -20 -20 -20 -20 -20 -20 -20 -20 -20 -20 -13 -14 5 16 26 26 24 29 32 31 29 28 34 34 31
7 -20 -20 -20 -20 -20 -15 -20 -20 -20 -20 -20 -20 -17 -14 -20 -14 -20 -20 -20 -20 -20 -20 -20 -20 -20 -10 -9 -14 -8 10 9 17 20 27 20 26 33 17 26 33 27 29
-20 -20 29 24 9 -20 -20 -20 -20 -20 -20 -20 -20 -20 -20 -20 -7 -17 -8 -5 -20 -20 -20 -20 -20 -20 -20 -20 -20 1 11 12 14 -5 3 26 21 27 23 24 30 31 28
-20 -20 -20 -20 -20 -20 -20 -20 -20 -20 -20 -20 -20 -20 -20 -20 5 7 -17 6 -15 -12 -18 -20 -20 -20 -20 -14 14 9 2 -17 -0 15 16 24 28 18 25 29 28 28 33
-20 -20 -20 -20 -20 -20 -20 -20 -20 -20 -20 -20 -20 -12 -20 9 -20 -20 -20 -20 -15 -16 -11 -20 -20 -16 16 -19 -20 -1 -20 3 14 21 21 24 26 29 31 28 28 29 29
-20 -20 -20 -20 -20 -20 -20 -20 -20 -20 -20 -20 -20 -20 -20 -20 -20 -20 -20 -6 4 10 -19 -20 -20 -20 -6 -18 3 -10 -20 11 12 17 19 22 28 18 28 29 28 29 30
-20 -20 -16 -20 -18 -15 -12 -20 -20 -19 -20 -20 -20 -20 -20 -20 -20 -20 -20 -20 -10 13 -20 -20 -20 -20 -20 -20 10 -20 -20 13 5 -4 9 8 -4 -2 -5 17 18 8 15
-20 2 12 -1 -2 8 -20 -18 -7 -8 -7 -20 -20 -20 -20 -20 -20 -20 -20 -20 -17 -3 -20 -20 -20 -20 -20 -20 -1 -18 -20 -20 -20 -8 -1 12 1 5 -15 2 -5 -8 -11
-20 -20 -20 -17 -1 -20 -20 -20 -20 -20 -20 -20 -20 -20 -20 -20 -17 -20 -20 -20 -20 -20 -20 -20 -20 -20 -20 -20 -20 -18 -20 -20 -15 11 -20 -6 -13 -8 -15 -19 -20 -20 -20
-20 -20 -20 -20 -20 -20 -20 -20 -20 -20 -20 -20 -20 -20 -20 -20 -20 -20 -20 -20 -20 -20 -20 -20 -20 -20 -20 -20 -20 -20 -20 -20 -20 7 1 -19 -20 -20 -20 -20 -20 -20 -20
-20 -20 -20 -20 -20 -20 -20 -20 -20 -20 -20 -20 -20 -5 -20 -20 -20 -20 -20 -20 -20 -20 -20 -20 -20 -20 -20 -20 -20 -20 -20 -20 -20 -20 -20 -20 -20 -20 -20 -20 -20 -20 -20
-20 -20 -20 -20 -20 -20 -20 -20 -20 -20 -20 -20 -20 -20 -20 -20 -20 -20 -20 -20 -20 -20 -20 -20 -20 -20 -20 -20 -20 -20 -20 -20 -20 -20 -20 -20 -20 -20 -20 -20 -20 -20 -20
-20 -20 -20 -20 -20 -20 -20 -20 -20 -20 -20 -20 -20 -20 -20 -20 -20 -20 -20 -20 -20 -20 -20 -20 -20 -20 -20 -20 -20 -20 -20 -20 -20 -20 -20 -20 -20 -20 -20 -20 -20 -20 -20
-20 -20 -20 -20 -20 -20 10 8 -11 -20 -20 -20 -20 -20 -20 -20 -20 -20 6 -20 -20 -20 -20 -20 -20 -20 -20 -20 -20 -20 -20 -20 -20 -20 -20 -20 -20 -20 -20 -20 -20 -20 -20
-20 -20 -20 -20 -20 -20 6 4 0 -20 -20 -20 -20 -20 -20 -20 -20 -20 -20 -20 -20 -20 -20 -20 -20 -20 -20 -20 -20 -20 -20 -20 -20 -20 -20 -20 -20 -20 -20 -20 -20 -20 -20
-20 -20 -20 -20 -20 -2 -1 -20 -20 -20 -20 -20 -20 -20 -20 -20 -20 -20 -20 -20 -20 -20 -20 -20 -20 -20 -20 -20 -20 -20 -20 -20 -20 -20 -20 -20 -20 -20 -20 -20 -20 -20 -20
-20 -20 -20 -20 -20 -20 -20 -20 -20 -20 -20 -20 -20 -20 -20 -20 -20 -20 -20 -20 -20 -20 -20 -20 -20 -20 -20 -20 -20 -20 -20 -20 -20 -20 -20 -20 -20 -20 -20 -20 -20 -20 -20
-20 -20 -20 -20 -20 -20 -20 -20 -20 -20 -20 -20 -20 -20 -20 -20 -20 -20 -20 -20 -20 -20 -20 -20 -20 -20 -20 -20 -20 -20 -20 -20 -20 -20 -20 -20 -20 -20 -20 -20 -20 -20 -20

GFSMA_prec_radar_087.txt.gz
Reflectivity
-20 -20 -20 -20 -20 -20 -20 -20 -20 -20 -20 -20 -20 -20 -20 -20 -20 -20 -20 -20 -20 -20 -20 -20 -20 -20 -20 -20 -20 -20 -20 -20 -20 -20 -20 -20 -20 -20 -20 -20 -10 -20 -20
-20 -20 -20 -20 -20 -20 -20 -20 -20 -20 -20 -20 -20 -20 -20 -20 -20 -20 -20 -20 -20 -20 -20 -20 -20 -20 -20 -20 -20 -20 -20 -20 -20 -20 -20 -20 -20 -20 -20 -20 -20 -20 -20
-20 -20 -20 -20 -20 -20 -20 -20 -20 -20 -20 -20 -20 -20 -20 -20 -20 -20 -20 -20 -20 -20 -20 -20 -20 -20 -20 -20 -20 7 -16 -20 -20 -20 -20 -20 -20 -20 -20 -20 -0 -6 -20
-20 -20 -20 -20 -20 -20 -20 -20 -20 -20 -20 -20 -20 -20 -20 -20 -20 -20 -20 -20 -20 -20 -20 -20 10 -20 -20 -20 -20 13 -1 -20 -20 -20 -20 -20 -20 -20 -20 -20 -20 -20 6
-20 -20 -20 -20 -20 -20 -20 -20 -20 -20 -20 -20 -20 -20 -20 -20 -20 -20 -20 -20 -20 -20 -20 -20 -20 -20 -20 -20 -20 -3 4 -20 -20 -20 -20 -20 -20 -20 -20 -11 -8 2 -10
-20 -20 -20 -20 -20 -20 -20 -20 -20 -20 -20 -20 -20 -20 -20 -20 -20 -20 -20 -20 -20 -20 -20 -20 -20 -20 -20 -20 -20 -19 1 10 -20 -5 -15 5 -7 23 28 25 9 -0 15
-20 -20 -20 -20 -20 -20 -20 -20 -20 -20 -20 -20 -20 -20 -20 -20 -20 -20 -20 -20 -20 -20 -20 -20 -20 -20 -20 -20 -20 -20 -4 11 18 9 -11 -20 -10 16 -9 11 14 14 29
-20 -20 -20 -20 -20 -20 -20 -20 -20 -20 -20 -20 -20 -20 -20 -20 -20 -20 -20 -20 -20 -20 -20 -20 -20 -20 -20 -20 -20 -8 7 7 17 12 12 -2 -13 -6 -20 9 3 14 9
-20 -20 -20 -20 -20 -20 -20 -20 -20 -20 -20 -20 -20 -20 -20 -20 -20 -20 -20 -20 -20 -20 -20 -20 -20 -20 -20 -20 -2 9 9 9 12 10 -10 6 -20 -20 -19 -20 4 -17 11
-9 -20 -20 -20 -20 -18 -20 -20 -20 -20 -20 -20 -20 -20 -20 -20 7 4 -20 -20 -20 -20 -20 -20 -20 -20 -20 -20 -20 -20 1 3 -3 15 29 23 10 12 13 8 16 7 3
-20 -20 -20 -20 22 -20 -20 -20 -20 -20 -20 -20 -20 -20 -20 -18 -11 4 -7 6 -5 -20 -20 -20 -20 -20 -20 -20 -20 -8 -16 12 5 17 27 16 21 13 19 26 23 25 26
-20 -20 -20 -20 -20 -20 -20 -20 -20 -20 -20 -20 -20 -20 -20 -20 -20 -11 -20 -20 -13 -18 -20 -20 -20 -20 -20 -20 8 -13 -2 -4 12 21 22 30 23 4 14 20 30 34 29
-20 -20 -20 -20 -20 -20 -20 -20 -20 -20 -20 -20 -20 -20 -12 -12 -20 -20 -20 -20 -10 -20 -4 -20 -20 -20 -20 -20 -20 6 -19 4 2 10 15 23 20 22 5 7 11 24 27
-20 -20 -20 -20 -20 -20 -20 -20 -20 -20 -20 -18 -20 -19 -8 -20 -20 -14 -20 -20 -20 -20 -20 -20 -20 -20 -20 -20 5 -19 -20 -8 1 5 3 -16 4 -3 -7 -13 -3 17 26
-20 -20 -20 -20 -20 -20 -20 -20 -20 -20 2 7 -19 -20 -20 -20 -20 -12 -20 -20 -20 -20 -20 -20 -20 -20 -18 -20 5 -19 -20 4 -4 3 -2 -20 -20 -19 2 0 -20 -12 -7
-20 -20 -20 -20 -20 -20 -17 -4 21 -19 -11 -11 -20 -20 -20 -20 -20 -20 -20 -20 -20 -20 -20 -20 -20 -20 -20 -20 -8 -16 -13 -9 -1 5 4 -13 -7 -12 -11 -20 -7 -17 -20
-20 -20 -20 -20 -20 -20 -1 -12 -17 -20 -20 -20 -20 -20 -20 -20 -20 -20 -20 -20 -20 -20 -20 -20 -20 -20 -20 -20 -20 -20 -8 -20 -9 10 -4 -18 -3 -11 -17 -5 -12 -20 -20
-20 -20 -20 -20 -20 -20 -20 -20 -20 -20 -20 -20 -20 -20 -20 -20 -20 -20 -20 -20 -20 -20 -20 -20 -20 -20 -20 -20 -20 -20 -20 -20 -20 -20 8 -18 -19 -9 3 -19 -20 -20 -20
-20 -20 -20 -20 -20 -20 -20 -20 -20 -20 -20 -20 -20 -20 -20 -20 -20 -20 -20 -20 -20 -20 -20 -20 -20 -20 -20 -20 -20 -20 -20 -20 -20 -20 -18 -12 -20 -20 -20 -20 -20 -20 -20
-20 -20 -20 -20 -20 -20 -20 -20 -20 -20 -20 -20 -20 -20 -20 -20 -20 -20 -20 -20 -20 -20 -20 -20 -20 -20 -20 -20 -20 -20 -20 -20 -20 -20 -20 -20 -20 -20 -20 -20 -20 -20 -20
-20 -20 -20 -20 -20 -20 -20 -20 -20 -20 -20 -20 -20 -20 -20 -20 -20 -20 -20 -20 -20 -20 -20 -20 -20 -20 -20 -20 -20 -20 -20 -20 -20 -20 -20 -20 -20 -20 -20 -20 -20 -20 -20
-20 -20 -20 -20 -20 -20 -2 -15 -20 -20 -20 -20 -20 -20 -20 -20 5 2 -20 -20 -20 -20 -20 -20 -20 -20 -20 -20 -20 -20 -20 -20 -20 -20 -20 -20 -20 -20 -20 -20 -20 -20 -20
-20 -20 -20 -20 -20 -19 11 11 -20 -20 -20 -20 -20 -20 -20 -20 -20 -20 -20 -20 -20 -20 -20 -20 -20 -20 -20 -20 -20 -20 -20 -20 -20 -20 -20 -20 -20 -20 -20 -20 -20 -20 -20
-20 -20 -20 -20 -20 -5 10 10 -20 -20 -20 -20 -20 -20 -20 -20 -20 -20 -20 -20 -20 -20 -20 -20 -20 -20 -20 -20 -20 -20 -20 -20 -20 -20 -20 -20 -20 -20 -20 -20 -20 -20 -20
-20 -20 -20 -20 -20 -19 -4 -20 -20 -20 -20 -20 -20 -20 -20 -20 -20 -20 -20 -20 -20 -20 -20 -20 -20 -20 -20 -20 -20 -20 -20 -20 -20 -20 -20 -20 -20 -20 -20 -20 -20 -20 -20
-20 -20 -20 -20 -20 -20 -20 -20 -20 -20 -20 -20 -20 -20 -20 -20 -20 -20 -20 -20 -20 -20 -20 -20 -20 -20 -20 -20 -20 -20 -20 -20 -20 -20 -20 -20 -20 -20 -20 -20 -20 -20 -20

GFSMA_prec_radar_090.txt.gz
Reflectivity
-20 -20 -20 -20 -20 -19 -20 -20 -20 -20 -20 -20 -20 -20 -20 -20 -20 -20 -20 -20 -20 -20 -13 -19 -20 -20 -20 -20 -20 -20 -20 -20 -20 -20 -20 -20 -20 -20 -20 -16 2 9 -3
-20 -20 -20 -20 -20 -20 -20 -20 -20 -20 -20 -20 -20 -20 -20 -20 -20 -20 -20 -20 -20 -20 -20 -20 -2 -20 -20 -20 -20 -20 -20 -20 -20 -20 -20 -20 -20 -20 -20 -20 -20 -20 -20
-20 -20 -20 -20 -20 -20 -20 -20 -20 -20 -20 -20 -20 -20 -20 -20 -20 -20 -20 -20 -20 -20 -20 -20 -17 -10 -20 -20 -17 0 -20 -20 -20 -20 -20 -20 -20 -20 -20 -20 -20 -20 -20
-20 -20 -20 -20 -20 -20 -20 -20 -20 -20 -20 -20 -20 -20 -20 -20 -20 -20 -20 -20 -20 -20 -20 -20 -16 -9 8 10 -10 -0 -20 -20 -20 -20 -20 -20 -20 -20 -20 -19 -20 -20 -16
-20 -20 -20 -20 -20 -20 -20 -20 -20 -20 -20 -20 -20 -20 -20 -20 -20 -20 -20 -20 -20 -20 -20 -20 -20 -20 -12 -20 7 9 11 -20 -20 -20 -20 -20 -20 -20 -20 -20 -20 -19 -6
-20 -20 -20 -20 -20 -20 -20 -20 -20 -20 -20 -20 -20 -20 -20 -20 -20 -20 -20 -20 -20 -20 -20 -20 -20 -20 -20 -20 -4 -20 8 22 -20 -12 -20 -20 -20 -20 -20 -20 -20 -20 -20
-20 -20 -20 -20 -20 -20 -20 -20 -20 -20 -20 -20 -20 -20 -20 -20 -20 -20 -20 -20 -20 -20 -20 -20 -20 -20 -20 -20 -20 -20 -20 -0 18 18 -12 -10 -20 -20 -20 -20 -20 -20 -20
-20 -20 -20 -20 -20 -20 -20 -20 -20 -20 -20 -20 -20 -20 -20 -20 -20 -20 -20 -20 -20 -20 -20 -20 -20 -20 -20 -20 -12 -12 -16 -20 16 24 17 -20 -20 -20 -20 -20 -19 1 -19
-19 -20 -20 -20 -20 -20 -20 -20 -20 -20 -20 -20 -20 -20 -20 -20 -20 -20 -20 -20 -20 -20 -20 -20 -20 -20 -20 -20 -20 -19 2 -20 -15 23 22 -8 -20 16 -20 -20 -8 -10 -20
4 -4 -13 -20 -20 -20 -20 -20 -20 -20 -20 -20 -20 -20 -20 -18 -16 1 -20 -20 -20 -20 -20 -20 -20 -20 -20 -20 -20 -20 -20 -20 -20 9 22 19 16 8 -1 6 14 20 15
-3 -20 -20 -20 -20 -20 -20 -20 -20 -20 -20 -20 -20 -20 -20 -20 -20 -20 9 -20 -20 -20 -20 -20 -20 -20 -20 -20 -20 -20 -8 10 7 9 23 27 29 -0 25 24 18 15 21
-2 -20 -20 -20 -20 -20 -20 -20 -20 -20 -20 -20 -20 -20 -20 -12 -20 -20 -17 -20 -19 -20 -20 -20 -20 -20 -20 -20 -20 -20 -20 -20 -12 -1 22 14 29 32 23 15 8 16 -3
-20 -20 -20 -20 -20 12 1 -20 -20 -20 -20 -20 -20 -19 -7 5 1 -20 -9 11 11 -20 -20 -20 -20 -20 -20 -20 -20 -20 -20 9 1 0 12 15 -1 5 -6 -13 -18 -7 -18
-20 -20 -20 -20 -20 -20 -20 -9 -4 -19 -15 -3 -3 -9 -19 -20 -20 -20 -20 -0 -12 -20 -20 -20 -20 -20 -11 -20 -14 -20 -13 -5 -18 7 13 -17 -14 -20 8 -6 -13 -4 8
-20 -20 -20 -20 -20 -20 -20 -20 -20 -20 -20 -20 -20 -20 -19 -20 -20 -20 -20 -19 -5 3 -8 -20 -20 -20 -4 -5 4 -20 -16 -9 -2 9 2 7 6 0 -3 5 -5 -3 -5
-20 -20 -20 -20 -20 -20 -20 -20 -20 -20 -2 -20 -20 -20 -19 -20 -20 -20 -20 -20 -20 -11 -20 -20 -20 -20 -20 -20 -20 -20 -20 -20 -19 -20 -17 -16 -20 -13 -9 -13 -10 0 -7
-20 -20 -20 -20 -20 -20 -20 -20 -11 -20 -7 8 -20 -20 -20 -20 -20 -20 -20 -20 -20 -20 -16 -20 -20 -20 -20 -20 -20 -20 -20 -20 -20 -20 -18 -19 -20 -20 -1 -1 -2 -16 -20
-20 -20 -20 -20 -20 -20 -20 -20 -5 -11 7 -12 -20 -20 -20 -20 -20 -20 -20 -20 -20 -20 -20 -20 -20 -20 -20 -20 -20 -20 -20 -20 -20 -11 -17 -20 -20 -20 -20 -20 -20 -20 -20
-20 -20 -20 -20 -20 -20 -20 -20 -20 -20 -20 -20 -20 -20 -20 -20 -20 -20 -20 -20 -20 -20 -20 -20 -20 -20 -20 -20 -20 -20 -20 -20 -20 -20 -20 -20 -20 -20 -20 -20 -20 -20 -20
-20 -20 -20 -20 -20 -20 -20 -20 -20 -20 -20 -20 -20 -20 -20 -20 -20 -20 -20 -20 -20 -20 -20 -20 -20 -20 -20 -20 -20 -20 -20 -20 -20 -20 -20 -20 -20 -20 -20 -20 -20 -20 -20
-20 -20 -20 -20 -20 -20 -20 -20 -20 -20 -20 -20 -20 -20 -20 -20 -20 -20 -20 -20 -20 -20 -20 -20 -20 -20 -20 -20 -20 -20 -20 -20 -20 -20 -20 -20 -20 -20 -20 -20 -20 -20 -20
-20 -20 -20 -20 -20 -20 -17 -20 -20 -20 -20 -20 -20 -20 -20 -20 -20 -20 -20 -20 -20 -20 -20 -20 -20 -20 -20 -20 -20 -20 -20 -20 -20 -20 -20 -20 -20 -20 -20 -20 -20 -20 -20
-20 -20 -20 -20 -20 -16 11 5 -19 -20 -20 -20 -20 -20 -20 -20 -20 -20 -20 -20 -20 -20 -20 -20 -20 -20 -20 -20 -20 -20 -20 -20 -20 -20 -20 -20 -20 -20 -20 -20 -20 -20 -20
-20 -20 -9 -16 -20 -18 14 12 -15 -20 -20 -20 -20 -20 -20 -20 -20 -20 -20 -20 -20 -20 -20 -20 -20 -20 -20 -20 -20 -20 -20 -20 -20 -20 -20 -20 -20 -20 -20 -20 -20 -20 -20
-20 -20 -20 -20 -20 -1 14 7 -20 -20 -20 -20 -20 -20 -20 -20 -20 -20 -20 -20 -20 -20 -20 -20 -20 -20 -20 -20 -20 -20 -20 -20 -20 -20 -20 -20 -20 -20 -20 -20 -20 -20 -20
-20 -20 -20 -20 -12 -20 -20 -20 -20 -20 -20 -20 -20 -20 -20 -20 -20 -20 -20 -20 -20 -20 -20 -20 -20 -20 -20 -20 -20 -20 -20 -20 -20 -20 -20 -20 -20 -20 -20 -20 -20 -20 -20

GFSMA_prec_radar_093.txt.gz
Reflectivity
-20 -20 -20 -20 -20 -20 -20 -20 -20 -20 -20 -20 -20 -20 -20 -20 -20 -20 -20 -20 -20 -20 -20 -10 -20 -20 -20 -20 -20 -20 -20 -20 -20 -20 -20 -20 -20 -20 -20 -20 -20 -20 -20
-20 -20 -20 -20 -20 -20 -20 -20 -20 -20 -20 -20 -20 -20 -20 -20 -20 -20 -20 -20 -20 -20 -20 -20 5 -20 -20 -20 -20 -20 -20 -20 -20 -20 -20 -20 -20 -20 -20 -20 -20 -20 -20
-20 -20 -20 -20 -20 -20 -20 -20 -20 -20 -20 -20 -20 -20 -20 -20 -20 -20 -20 -20 -20 -20 -20 -20 -20 -5 -12 -20 -20 -20 -20 -20 -20 -20 -20 -20 -20 -20 -20 -20 -20 -20 -20
-20 -20 -20 -20 -20 -20 -20 -20 -20 -20 -20 -20 -20 -20 -20 -20 -20 -20 -20 -20 -20 -20 -20 -20 -20 -11 10 3 -0 4 -17 -20 -20 -20 -20 -20 -20 -20 -20 -20 -20 -20 -20
-20 -20 -20 -20 -20 -20 -20 -20 -20 -20 -20 -20 -20 -20 -20 -20 -20 -20 -20 -20 -20 -20 -20 -20 -20 -20 -20 -19 -13 -4 11 7 3 -15 -20 -20 -20 -20 -20 -20 -20 -20 -20
-20 -20 -20 -20 -20 -20 -20 -20 -20 -20 -20 -20 -20 -20 -20 -20 -20 -20 -20 -20 -20 -20 -20 -20 -20 -20 -20 -20 -20 -20 10 10 -2 3 8 -20 -20 -20 -20 -20 -20 -20 -20
-20 -20 -20 -20 -20 -20 -20 -20 -20 -20 -20 -20 -20 -20 -20 -20 -20 -20 -20 -20 -20 -20 -20 -20 -20 -20 -20 -20 -20 -20 -20 -20 1 25 5 -20 -13 -18 -20 -20 -20 -20 -20
-16 -8 -5 -6 -18 -20 -20 -20 -20 -20 -20 -20 -20 -20 -20 -20 -20 -20 -20 -20 -20 -20 -20 -20 -20 -20 -20 -20 -20 3 -19 -20 -20 14 24 5 12 -4 5 -20 -20 -20 -20
0 -19 -15 -20 -20 -20 -20 -20 -20 -20 -20 -20 -20 -20 -20 -20 -20 -20 -20 -20 -20 -20 -20 -20 -20 -20 -20 -20 -20 -20 -20 -20 -20 -20 18 8 -4 -17 2 -6 -20 -20 -20
-9 26 30 27 10 -7 -4 -17 -20 -20 -20 -20 -20 -14 -20 -20 -20 -5 -20 -20 -20 -20 -20 -20 -20 -20 -20 -20 -20 -20 -20 -20 -20 -20 -13 28 27 6 1 14 4 15 11
-20 16 33 31 32 7 9 -4 -19 -20 -20 -20 -20 -19 -20 -20 -20 -15 4 5 -20 -20 -20 -20 -20 -20 -20 -20 -20 -20 -20 -20 -20 -20 -10 13 29 29 21 15 23 -18 2
16 24 11 19 22 11 -1 -20 -19 -20 -20 -20 -19 1 -20 -20 -20 -20 -20 -20 -20 -16 -20 -20 -20 -20 -20 -20 -20 -20 -20 -20 -7 -14 -1 13 7 -14 28 29 19 11 10
9 -12 11 31 9 -17 1 -2 -20 -20 -20 -20 -20 1 -13 -4 -20 -20 5 6 -0 1 -20 -20 -20 -20 -20 -20 -20 -20 -19 -20 -20 -19 15 18 -20 -10 -8 6 16 11 3
14 7 16 -8 -19 -19 -11 6 3 7 6 11 26 6 -1 -19 -20 -20 -20 3 -20 -5 -4 -19 -20 -20 -20 -20 -13 9 -4 14 -17 10 10 -4 -14 -17 -13 -1 8 -13 -20
-3 -1 6 -20 -19 -18 -11 -14 6 5 10 10 10 19 20 3 -20 -20 -20 -20 -20 -20 -20 -20 -20 -20 -18 -20 -2 -20 -20 7 6 -1 10 11 12 3 -20 4 -10 5 -6
-18 -20 -20 -20 -20 -20 -20 -20 -20 -20 -7 -1 13 -7 9 -14 -20 -20 -20 -20 -20 1 -14 -20 -20 -20 -20 -20 -19 -20 -19 9 4 3 -20 -20 -14 5 2 -20 5 2 4
-20 -20 -20 -20 -20 -20 -20 -9 -13 -20 -20 -9 -7 -12 -14 18 -20 -20 -20 -20 -20 -20 -20 -20 -20 -20 -20 -20 -20 -20 -11 -20 -12 -9 -20 -20 -20 -20 -20 -20 -20 -14 -20
-20 -20 -20 -20 -20 -20 -20 -18 -20 2 -10 -5 -18 -20 -19 -2 -20 -20 -20 -20 -20 -20 -20 -20 -20 -20 -20 -20 -20 -20 -20 -20 -20 -20 -20 -20 -20 -20 -20 -20 -20 -20 -20
-20 -20 -20 -20 -20 -20 -20 -20 -20 -20 -20 -7 -20 -20 -20 -20 -20 -20 -20 -20 -20 -20 -20 -20 -20 -20 -20 -20 -20 -20 -20 -20 -20 -20 -20 -20 -20 -20 -20 -20 -20 -20 -20
-20 -20 -20 -20 -20 -20 -20 -20 -20 -20 -20 -20 -20 -20 -20 -20 -20 -20 -20 -20 -20 -20 -20 -20 -20 -20 -20 -20 -20 -20 -20 -20 -20 -20 -20 -20 -20 -20 -20 -20 -20 -20 -20
-20 -20 -20 -20 -20 -20 -20 -20 -20 -20 -20 -20 -20 -20 -20 -20 -20 -20 -20 -20 -20 -20 -20 -20 -20 -20 -20 -20 -20 -20 -20 -20 -20 -20 -20 -20 -20 -20 -20 -20 -20 -20 -20
-20 -20 -20 -20 -20 -20 -14 4 -8 -20 -20 -20 -20 -20 -20 -20 -20 -20 -20 -20 -20 -20 -20 -20 -20 -20 -20 -20 -20 -20 -20 -20 -20 -20 -20 -20 -20 -20 -20 -20 -20 -20 -20
-20 -20 -20 -20 -20 -20 -13 3 12 -20 -20 -20 -20 -20 -20 -20 -20 -20 -20 -20 -20 -20 -20 -20 -20 -20 -20 -20 -20 -20 -20 -20 -20 -20 -20 -20 -20 -20 -20 -20 -20 -20 -20
-20 -20 -11 -20 -20 -19 -2 -3 4 -20 -20 -20 -20 -20 -20 -20 -20 -20 -20 -20 -20 -20 -20 -20 -20 -20 -20 -20 -20 -20 -20 -20 -20 -20 -20 -20 -20 -20 -20 -20 -20 -20 -20
-20 -14 -20 -20 -20 -20 10 11 -2 -20 -20 -20 -20 -20 -20 -20 -20 -20 -20 -20 -20 -20 -20 -20 -20 -20 -20 -20 -20 -20 -20 -20 -20 -20 -20 -20 -20 -20 -20 -20 -20 -20 -20
-20 -20 -20 -20 1 -20 10 3 -20 -20 -20 -20 -20 -20 -20 -20 -20 -20 -20 -20 -20 -20 -20 -20 -20 -20 -20 -20 -20 -20 -20 -20 -20 -20 -20 -20 -20 -20 -20 -20 -20 -20 -20

GFSMA_prec_radar_096.txt.gz
Reflectivity
-20 -20 -20 -20 -20 -20 -20 -20 -20 -20 -20 -20 -20 -20 -20 -20 -20 -20 -20 -20 -20 -20 -20 -20 -20 -20 -20 -20 -20 -20 -20 -20 -20 -20 -20 -20 -20 -20 -20 -20 -20 -20 -20
-20 -20 -20 -20 -20 -20 -20 -20 -20 -20 -20 -20 -20 -20 -20 -20 -20 -20 -20 -20 -20 -20 -20 -20 -12 -20 -20 -20 -20 -20 -20 -20 -20 -20 -20 -20 -20 -20 -20 -20 -20 -20 -20
-20 -20 -20 -20 -20 -20 -20 -20 -20 -20 -20 -20 -20 -20 -20 -20 -20 -20 -20 -20 -20 -20 -20 -20 -20 -1 -15 -20 -20 -20 -20 -20 -20 -20 -20 -20 -20 -20 -20 -20 -20 -20 -20
-20 -20 -20 -20 -20 -20 -20 -20 -20 -20 -20 -20 -20 -20 -20 -20 -20 -20 -20 -20 -20 -20 -20 -20 -20 -20 -7 4 11 5 -12 -20 -20 -20 -20 -20 -20 -20 -20 -20 -20 -20 -20
-20 -20 -20 -20 -20 -20 -20 -20 -20 -20 -20 -20 -20 -20 -20 -20 -20 -20 -20 -20 -20 -20 -20 -20 -20 -20 -11 -20 -20 -2 5 7 13 10 -10 -20 -20 -20 -20 -20 -20 -20 -20
-20 -20 -20 -20 -20 -20 -20 -20 -20 -20 -20 -20 -20 -20 -20 -20 -20 -20 -20 -20 -20 -20 -20 -20 -20 -20 -20 -20 -20 -20 -7 25 21 -5 -14 -20 -20 -20 -20 -20 -20 -20 -20
-20 -20 -20 -20 -20 -20 -20 -20 -20 -20 -20 -20 -20 -20 -20 -20 -20 -20 -20 -20 -20 -20 -20 -20 -20 -20 -20 -16 -20 -20 -20 -20 6 13 6 -20 -20 -20 11 -12 -20 -20 -20
-20 -20 -20 -20 -20 -20 -17 -12 -7 -17 -20 -20 -20 -20 -20 -20 -20 -20 -20 -20 -20 -20 -20 -20 -20 -20 -20 -20 -20 -18 -2 6 -20 -20 7 22 -9 -20 12 -18 -20 -20 -20
20 14 16 15 22 -17 -20 -20 -20 -16 -19 -20 -20 -20 -20 -20 -20 -20 -20 -20 -20 -20 -20 -20 -20 -20 -20 -20 6 0 6 -20 -20 -9 -20 21 23 -20 -20 11 -2 -9 -20
29 30 23 23 18 13 22 25 29 26 -10 -2 -6 -7 -20 -20 -20 -20 -20 -20 -20 -20 -20 -20 -20 -20 -20 -20 -20 -20 -20 -20 -20 -20 -20 8 10 27 26 4 12 -3 13
-17 6 28 9 -7 -12 24 23 28 32 32 8 -18 5 -20 -20 -20 -20 -20 -20 -20 -20 -20 -20 -20 -20 -20 -20 -20 -20 -20 -20 -20 -20 -7 4 -20 6 24 24 25 25 8
-13 -17 12 -2 23 23 23 21 29 29 35 13 -20 -20 -20 -1 -20 -20 -20 -20 -20 -20 -20 -20 -20 -20 -20 -20 -20 -20 -20 -20 -20 -20 -16 19 14 -16 -12 33 26 15 12
9 9 27 25 29 33 7 20 25 23 20 -1 -20 -17 -5 -12 7 7 -13 -20 -20 -20 -20 -20 -20 -20 -20 -20 -20 -4 -18 -20 -6 -2 23 4 -18 -3 -5 17 11 21 -10
25 20 14 33 33 19 13 -13 16 19 2 5 10 5 -3 15 10 5 -19 -20 -20 -4 -13 -20 -20 -20 -20 -20 2 11 -20 6 12 8 14 10 10 0 9 -0 9 -12 8
-20 -11 -10 0 -4 1 13 21 16 13 11 10 6 -9 -1 4 13 6 -14 -20 -16 -20 -8 -20 -20 -20 -20 -20 -16 -20 -20 12 11 13 14 -15 11 8 7 12 -0 -19 -20
-20 -20 -20 -20 -17 -20 -20 -20 -20 -20 -20 -20 -15 -20 -14 -17 -2 5 -9 -20 -20 -20 -20 -20 -20 -20 -20 -20 -20 -20 -13 10 9 13 13 -20 -20 -20 -8 3 -6 -20 -20
-20 -20 -20 -20 -20 -20 -20 -20 -20 -20 -20 -20 -16 7 -20 -6 -3 -10 -16 -20 -20 -20 -20 -20 -20 -20 -20 -20 -20 -20 -9 -20 -15 11 9 -20 -20 -20 -20 -20 -20 -20 -20
-20 -20 -20 -20 -20 -20 -20 -20 -20 0 -18 -17 -7 -10 11 4 2 -20 9 -20 -20 -20 -20 -20 -20 -20 -20 -20 -20 -20 -20 -20 -20 5 -20 -20 -20 -20 -20 -20 -20 -20 -20
-15 -6 -20 -20 -20 -20 -20 -20 -20 -15 -20 -20 10 -7 -20 1 -20 -19 -20 -20 -20 -20 -20 -20 -20 -20 -20 -20 -20 -20 -20 -20 -20 -20 -20 -20 -20 -20 -20 -20 -20 -20 -20
-18 -16 -20 -20 -20 -20 -20 -20 -20 -20 -20 -20 -20 -20 -12 -20 -17 -20 -20 -20 -20 -20 -20 -20 -20 -20 -20 -20 -20 -20 -20 -20 -20 -20 -20 -20 -20 -20 -20 -20 -20 -20 -20
-20 -20 -20 -20 -20 -20 -20 -20 -20 -20 -20 -20 -15 -1 -20 2 -20 -20 -20 -20 -20 -20 -20 -20 -20 -20 -20 -20 -20 -20 -20 -20 -20 -20 -20 -20 -20 -20 -20 -20 -20 -20 -20
-20 -20 -20 -20 -20 -20 -20 -20 -10 -20 -20 -20 -20 -20 -20 -20 -20 -20 -20 -20 -20 -20 -20 -20 -20 -20 -20 -20 -20 -20 -20 -20 -20 -20 -20 -20 -20 -20 -20 -20 -20 -20 -20
-20 -20 -20 -20 -20 -20 -7 -20 -9 -20 -20 -20 -20 -20 -20 -20 -20 -20 -20 -20 -20 -20 -20 -20 -20 -20 -20 -20 -20 -20 -20 -20 -20 -20 -20 -20 -20 -20 -20 -20 -20 -20 -20
-20 -20 -17 -20 -20 -20 7 10 6 -20 -20 -20 -20 -20 -20 -20 -20 -20 -20 -20 -20 -20 -20 -20 -20 -20 -20 -20 -20 -20 -20 -20 -20 -20 -20 -20 -20 -20 -20 -20 -20 -20 -20
-13 -20 -20 -20 -20 -20 2 11 -1 -20 -20 -20 -20 -20 -20 -20 -20 -20 -20 -20 -20 -20 -20 -20 -20 -20 -20 -20 -20 -20 -20 -20 -20 -20 -20 -20 -20 -20 -20 -20 -20 -20 -20
-20 -20 -20 -20 -20 -20 7 10 1 -20 -20 -20 -20 -20 -20 -20 -20 -20 -20 -20 -20 -20 -20 -20 -20 -20 -20 -20 -20 -20 -20 -20 -20 -20 -20 -20 -20 -20 -20 -20 -20 -20 -20

GFSMA_prec_radar_099.txt.gz
Reflectivity
-20 -20 -20 -20 -20 -20 -20 -20 -20 -20 -20 -20 -20 -20 -20 -20 -20 -20 -20 -20 -20 -20 -20 -20 -20 -20 -20 -20 -20 -20 -20 -20 -20 -20 -20 -20 -20 -20 -20 -20 -20 -20 -20
-20 -20 -20 -20 -20 -20 -20 -20 -20 -20 -20 -20 -20 -20 -20 -20 -20 -20 -20 -20 -20 -20 -20 -20 -20 -20 -20 -20 -20 -20 -20 -20 -20 -20 -20 -20 -20 -20 -20 -20 -20 -20 -20
-20 -20 -20 -20 -20 -20 -20 -20 -20 -20 -20 -20 -20 -20 -20 -20 -20 -20 -20 -20 -20 -20 -20 -20 -20 -11 -13 -20 -2 -20 -20 -20 -20 -20 -20 -20 -20 -20 -20 -20 -20 -20 -20
-20 -20 -20 -20 -20 -20 -20 -20 -20 -20 -20 -20 -20 -20 -20 -20 -20 -20 -20 -20 -20 -20 -20 -20 -20 -20 -20 -20 5 14 9 -19 -20 -19 -20 -20 -20 -20 -20 -20 -20 -20 -20
-20 -20 -20 -20 -20 -20 -20 -20 -20 -20 -20 -20 -20 -20 -20 -20 -20 -20 -20 -20 -20 -20 -20 -20 -20 -20 -20 -20 -20 -11 16 3 9 3 7 -20 -20 -20 -20 -20 -20 -20 -20
-20 -20 -20 -20 -20 -20 -20 -20 -20 -20 -20 -20 -20 -20 -20 -20 -20 -20 -20 -20 -20 -20 -20 -20 -20 -20 -20 -20 21 -20 5 28 18 5 -11 -17 -20 -20 0 -14 -17 -20 -20
-20 -20 -20 -20 -20 -20 -20 -20 -20 -20 -20 -20 -20 -10 -17 -20 -20 -20 -20 -20 -20 -20 -20 -20 -20 -20 -20 -20 -20 -20 10 -20 8 -0 24 5 9 -20 -9 -12 2 -20 -20
-20 -20 -20 -20 -20 -20 -20 -20 -19 -17 -20 -20 -20 -20 -20 -20 -20 -20 -20 -20 -20 -19 -19 -20 -20 -20 -20 -20 -20 -20 -13 0 -9 -16 -14 -13 28 13 -13 -17 -20 -14 -18
30 27 30 25 -10 -12 -20 -13 4 -10 -17 -20 -20 -20 -20 -20 -20 -20 -20 -20 -20 -15 -20 -20 -20 -20 -20 -20 -20 -20 -20 -16 -20 -20 -10 -18 -14 29 8 9 -6 9 -11
29 30 33 31 32 33 30 30 25 20 19 19 29 20 20 16 16 -17 -20 -20 2 -20 -20 -20 -20 -20 -20 -20 -20 -20 -20 -20 -20 -20 -20 -20 -1 -11 23 23 3 12 -5
21 19 -2 29 7 28 21 -6 29 28 30 19 19 27 32 26 -19 -9 -17 -20 -20 -20 -20 -20 -20 -20 -20 -20 -20 -20 -20 -20 -20 -20 -20 -20 -10 -20 21 25 24 25 22
11 24 -7 23 1 23 -16 15 18 14 28 9 25 28 33 31 7 20 7 -5 9 -11 -20 -20 -20 -20 -20 -20 -20 -20 -20 -20 -20 -20 -20 10 2 -20 -2 31 30 33 26
25 24 18 30 26 29 24 19 21 22 29 16 3 22 12 19 6 5 14 -7 -17 -20 -20 -20 -20 -20 -20 -20 -20 -10 7 -12 -5 10 16 12 -20 -5 22 4 12 21 19
10 15 32 30 26 25 -1 13 27 31 35 16 8 6 23 31 30 10 -20 16 -9 -16 -20 -20 -20 -20 -20 -20 -20 -19 -6 9 10 0 -19 13 -1 4 6 11 11 -0 9
16 8 1 7 -20 -20 -20 -20 -20 -20 -20 -18 -20 -11 -5 -11 -19 -20 -20 -19 -13 19 -7 -20 -20 -20 -20 -20 1 -20 -20 8 5 9 10 8 -20 -19 7 -2 12 4 3
-20 -20 -2 -16 -10 -20 -20 -20 -20 -12 1 -20 -20 -20 -20 -4 -20 -16 6 -20 5 21 2 -20 -20 -20 -20 -20 -11 -20 -13 9 -7 10 11 -6 -18 -20 -9 -9 -5 -2 -0
-20 -20 -16 -20 -20 -20 -20 -20 -20 -20 -20 -20 -20 -20 -20 -20 -20 -1 -14 -20 -20 -20 -18 -20 -20 -12 -20 -13 -20 -20 -4 -20 -11 8 -13 -20 -20 -20 -20 -20 -20 -20 -20
-20 -20 -20 -20 -20 -20 -20 -20 -20 -20 -20 -20 -20 -20 -20 -17 -19 -20 -20 -0 -20 -20 -20 -20 -20 -20 -20 -2 -20 -20 -20 -20 -20 -20 -20 -20 -20 -20 -20 -20 -20 -20 -20
-12 -10 -8 -5 -20 -20 -20 -20 -20 -20 -20 -20 -20 -13 -20 -20 -20 -20 6 -18 -20 -20 -20 -20 -20 -20 -20 -19 -20 -20 -20 -20 -20 -20 -20 -20 -20 -20 -20 -20 -20 -20 -20
-20 -20 -20 -20 -20 -20 -20 -20 -20 -20 -20 -20 -20 -20 -20 -12 -5 -20 -10 -15 -20 -20 -20 -20 -20 -20 -20 -20 -20 -20 -20 -20 -20 -20 -20 -20 -20 -20 -20 -20 -20 -20 -20
-20 -20 -20 -20 -20 -20 -20 -20 -20 -20 -20 -20 -20 -20 -12 9 12 1 -20 -16 -20 -20 -20 -20 -20 -20 -20 -20 -20 -20 -20 -20 -20 -20 -20 -20 -20 -20 -20 -20 -20 -20 -20
-20 -20 -20 -20 -20 -20 -20 -20 -20 -20 -20 -20 -20 -20 -20 5 -7 -20 -20 -20 -20 -20 -20 -20 -20 -20 -20 -20 -20 -20 -20 -20 -20 -20 -20 -20 -20 -20 -20 -20 -20 -20 -20
-20 -20 -20 -20 -20 -20 -20 -20 6 -20 -20 -20 -20 -20 -20 -20 -20 -20 -20 -20 -20 -20 -20 -20 -19 -20 -20 -20 -20 -20 -20 -20 -20 -20 -20 -20 -20 -20 -20 -20 -20 -20 -20
-20 -20 -20 -20 -20 -20 -18 1 9 -20 -20 -20 -17 -20 -20 -20 -20 -20 -20 -20 -20 -20 -20 -20 -20 -20 -20 -20 -20 -20 -20 -20 -20 -20 -20 -20 -20 -20 -20 -20 -20 -20 -20
-20 -20 -20 -20 -20 -20 -9 -11 -3 -20 -20 -20 -20 -20 -20 -20 -20 -20 -20 -20 -20 -20 -20 -20 -20 -20 -18 -20 -20 -20 -20 -20 -20 -20 -20 -20 -20 -20 -20 -20 -20 -20 -20
-20 -20 -20 -20 -20 -20 -3 9 -13 -20 -20 -20 -20 -19 -7 -19 -20 -19 -20 -14 -20 -20 -20 -20 -20 -11 -20 -20 -20 -20 -20 -20 -20 -20 -20 -20 -20 -20 -20 -20 -20 -20 -20

GFSMA_prec_radar_102.txt.gz
Reflectivity
-20 -20 -20 -20 -20 -20 -20 -20 -20 -20 -20 -20 -20 -20 -20 -20 -20 -20 -20 -20 -20 -20 -20 -20 -20 -20 -20 -20 -20 -20 -20 -20 -20 -20 -20 -20 -20 -20 -20 -20 -20 -20 -20
-20 -20 -20 -20 -20 -20 -20 -20 -20 -20 -20 -20 -20 -20 -20 -20 -20 -20 -20 -20 -20 -20 -20 -20 -20 -20 -20 -20 -20 -20 -20 -20 -20 -20 -20 -20 -20 -20 -20 -20 -20 -20 -20
-20 -20 -20 -20 -20 -20 -20 -20 -20 -20 -20 -20 -20 -20 -20 -20 -20 -20 -20 -20 -20 -20 -20 -20 -20 9 -6 -2 7 -17 -20 -20 -20 -20 -20 -20 -20 -20 -20 -20 -20 -20 -20
-20 -20 -20 -20 -20 -20 -20 -20 -20 -20 -20 -20 -20 -20 -20 -20 -20 -20 -20 -20 -20 -20 -20 -20 -19 -20 -20 -20 -18 18 -18 8 -14 -18 -20 -20 -20 -20 -20 -20 -20 -20 -20
-20 -20 -20 -20 -20 -20 -20 -20 -20 -20 -20 -20 -20 -20 -20 -20 -20 -20 -20 -20 -20 -20 -20 -20 -20 -20 -20 -20 25 0 11 10 15 8 8 -20 -20 -20 -20 -20 -20 -20 -20
-20 -20 -20 -20 -20 -20 -20 -20 -20 -20 -20 -20 -20 -20 -20 -20 -20 -20 -20 -20 -20 -20 -20 -20 -20 -20 -20 -20 -20 -20 -1 -6 17 7 -6 -9 -2 -20 -20 -11 -19 -17 -20
-20 -20 -20 -20 -20 -20 -20 -20 -20 -20 -20 -20 -20 -10 -8 -20 -20 -20 -20 -20 -20 -20 -18 -20 -20 -20 -20 -20 -20 -20 -20 -20 19 26 25 23 11 3 -20 -19 8 -20 -20
16 -20 -20 -20 -20 -20 -20 -14 -19 -3 -20 -10 -7 -19 -20 -20 -20 -20 -20 -20 -20 -20 5 -16 -15 -20 -20 -20 -20 -20 -20 -20 -20 -20 -17 11 22 16 -19 -9 6 -20 -20
-5 23 -20 -20 -20 -2 25 31 27 30 5 19 9 -20 -20 -20 -18 -15 -10 -12 1 -1 -20 14 -20 -20 -20 -20 -20 -20 -20 -19 -20 -20 -20 -13 -14 19 27 -19 7 -18 9
12 -20 17 27 20 21 23 31 33 29 30 30 32 30 24 26 15 17 -18 -20 -15 -15 12 4 -14 -20 -20 -20 -20 -20 -20 -20 -20 -20 -20 -20 -19 20 -13 26 21 -13 5
22 29 26 33 31 28 28 30 29 26 21 26 -14 17 22 29 15 23 34 -18 -19 10 0 -1 -15 -16 -20 -20 -20 -20 -20 -20 -20 -20 -20 -20 -20 -20 -11 0 29 19 14
30 21 28 24 15 42 29 7 14 12 15 13 14 18 20 31 20 30 28 10 14 7 -4 -7 -20 -20 -20 -20 -20 -20 -15 -20 -20 -20 -20 -14 5 -19 -19 -3 -5 27 25
-2 -4 -0 -6 12 21 16 29 38 30 25 4 16 25 27 29 23 15 24 19 13 -19 -18 -6 -20 -20 -20 -20 -20 -12 7 -12 -4 1 21 26 10 -20 -10 22 15 34 22
-20 -20 -20 -20 -19 -20 -17 -3 34 1 -18 14 21 24 22 26 28 27 -17 -3 -19 -20 -20 -20 -20 -20 -20 -20 -20 -10 -15 4 13 10 13 7 4 4 -20 3 -17 -9 15
-20 -20 -20 -20 -20 -20 -20 -20 -7 -6 -20 -20 -20 -20 -15 10 4 -20 4 -20 15 -9 -19 -20 -4 -20 -20 -20 -16 -20 -20 2 9 12 6 -19 -3 -20 -20 -17 -13 -1 -17
-20 -20 -20 -20 -20 -20 -20 -20 -20 -18 -20 -20 -20 -20 -20 -20 -20 -20 -20 -20 -20 17 3 -11 -18 11 -20 -20 4 -14 -20 4 10 12 10 7 9 -20 -20 -14 -14 -20 -14
-20 -20 -20 -20 -20 -20 -20 -20 -20 -20 -20 -20 -20 -20 -20 -20 -20 -20 -20 -2 -19 -20 7 -20 -8 -20 -20 -20 -7 -19 -10 -20 12 11 9 9 11 -20 -20 -20 -20 -20 -17
-20 -20 -20 -20 -20 -20 -20 -20 -20 -20 -20 -20 -20 -20 -20 -20 -20 -20 -20 -20 9 -20 -20 -11 -14 -20 -20 -2 -20 -20 -19 11 -20 13 0 5 -20 -20 -20 -20 -20 -20 -20
-20 -20 -20 -20 -20 -20 -20 -20 -20 -20 -20 -20 -20 -20 -20 -20 -20 -20 -20 -19 -20 -6 8 12 14 -12 -20 -20 -11 -20 5 -20 -20 10 2 -20 -20 -20 -20 -20 -20 -20 -20
-20 -20 -20 -20 -20 -20 -20 -20 -20 -20 -20 -20 -20 -20 -20 5 -11 -1 5 9 -19 -3 18 -20 -20 -20 -20 -20 -20 -20 -20 -20 -20 -20 -20 -20 -20 -20 -20 -20 -20 -20 -20
-20 -20 -20 -20 -20 -20 -20 -20 -20 -20 -20 -20 -20 -20 -20 -0 10 6 -11 -3 4 -8 -19 -20 -20 -20 -20 -20 -20 -20 -20 -20 -20 -20 -20 -20 -20 -20 -20 -20 -20 -20 -20
-20 -20 -20 -20 -20 -20 -20 -20 -20 -20 -20 -20 -20 -20 -20 -17 2 6 14 13 4 -20 -20 -20 -20 -20 -20 -20 -20 -20 -20 -20 -20 -20 -20 -20 -20 -20 -20 -20 -20 -20 -20
-20 -20 -20 -20 -20 -20 -20 -20 -10 -20 -20 -20 -20 -20 -20 -20 1 -20 2 -18 -20 -20 -20 -20 -20 -20 -20 -20 -20 -20 -20 -20 -20 -20 -20 -20 -20 -20 -20 -20 -20 -20 -20
-20 -20 -20 -20 -20 -20 -20 -12 -20 -20 -20 -20 -20 -5 -2 -16 -7 -18 -20 -20 -20 -20 -20 -20 -20 -20 -20 -20 -20 -20 -20 -20 -20 -20 -20 -20 -20 -20 -20 -20 -20 -20 -20
-20 -20 -20 -20 -20 -20 -20 0 -20 -20 -20 -20 -20 -16 -19 -20 11 -20 -20 -20 -20 -20 -20 -20 -20 -20 -20 -20 -20 -20 -20 -20 -20 -20 -20 -20 -20 -20 -20 -20 -20 -20 -20
-20 -20 -8 -20 -20 -20 -13 -7 -20 -20 -20 -20 -20 -14 10 7 14 -13 -20 -3 -20 -20 -17 -20 -19 -20 -20 -20 -20 -20 -20 -20 -20 -20 -20 -20 -20 -20 -20 -20 -20 -20 -20

GFSMA_prec_radar_108.txt.gz
Reflectivity
-20 -20 -20 -20 -20 -20 -20 -20 -20 -20 -20 -20 -20 -20 -20 -20 -20 -20 -20 -20 -20 -20 -20 -20 -20 -20 -20 -20 -20 -20 -20 -20 -20 -20 -20 -20 -20 -20 -20 -20 -20 -20 -20
-20 -20 -20 -20 -20 -20 -20 -20 -20 -20 -20 -20 -20 -20 -20 -20 -20 -20 -20 -20 -20 -20 -20 -9 -20 -20 -20 -20 -20 -20 -20 -20 -20 -20 -20 -20 -20 -20 -20 -20 -20 -20 -20
-20 -20 -20 -20 -20 -20 -20 -20 -20 -20 -20 -20 -20 -20 -20 -20 -20 -20 -20 -20 -20 -20 -20 -20 24 -19 6 11 3 -11 -12 -20 -20 -20 -20 -20 -20 -20 -20 -20 -20 -20 -20
-20 -20 -20 -20 -20 -20 -20 -20 -20 -20 -20 -20 -20 -20 -20 -20 -20 -20 -20 -20 -20 -20 -20 -20 -20 -20 -20 -20 -20 3 -0 -10 6 -19 -20 -20 -20 -20 -20 -20 -20 -20 -20
-20 -20 -20 -20 -20 -20 -20 -20 -20 -20 -20 -20 -20 -20 -20 -20 -20 -20 -20 -18 -20 -20 -20 -20 -20 -20 -20 -20 -20 -10 9 30 -9 -1 5 7 -20 -20 -20 -20 -20 -20 -20
-20 -20 -20 -20 -20 -20 -20 -20 -20 -20 -20 -20 -20 -20 -20 -20 -20 -20 -20 -20 -20 -20 -20 -20 -20 -9 6 2 -20 -14 9 8 13 8 -17 3 -16 -20 -20 -20 -20 -20 -20
-20 -20 -20 -20 -20 -20 -20 -20 -20 -20 -20 -20 -20 -20 -13 -20 -20 -20 -20 -20 -20 -20 -20 -20 -20 -20 -20 -20 -20 -20 -20 -20 -20 -20 -12 28 20 -19 -20 -2 -20 -20 -20
-20 -20 -20 -20 -20 -20 -20 -20 -20 -20 -20 -20 -20 -20 2 10 -20 -20 -20 -18 -19 -20 -16 18 21 7 -20 -20 -20 -20 -20 -20 -20 -20 -20 2 16 -0 4 4 -20 3 -20
20 -20 -20 -20 -20 -20 -12 -20 -20 -20 -20 -17 3 13 28 26 8 12 23 18 8 -20 17 22 1 -20 4 -20 -20 -20 -20 -16 -20 -20 -20 -20 -20 -11 -0 0 16 -10 -8
19 14 -17 15 14 -17 28 9 6 19 31 17 27 31 31 33 29 16 -10 9 20 13 11 13 10 21 4 3 -20 -20 -14 -20 -20 -20 -20 -20 -20 -20 -20 -1 -13 28 -17
33 26 30 29 29 27 32 34 37 28 15 6 -3 1 17 12 34 33 28 25 16 11 16 21 19 27 30 -19 -1 8 -20 -20 -20 -20 -20 -20 -20 -20 -19 -18 -7 -20 27
-9 32 34 39 35 35 22 -2 23 13 23 -20 -16 -5 12 -6 18 27 25 16 16 16 16 16 21 21 16 -3 5 -8 2 -5 -16 -20 -20 -13 -7 14 14 4 -7 -5 -20
4 11 -5 18 12 -16 -17 -20 -20 -20 -20 -20 16 14 22 6 8 9 5 -10 -1 3 2 23 26 5 3 9 -9 -11 -11 -18 -20 5 13 6 -15 6 13 -20 -20 3 -3
-7 -20 -20 -20 -20 -20 -20 -20 -20 -20 -20 -20 -20 -20 -20 -17 -20 -15 17 3 -19 -17 -20 -12 -19 8 -6 -19 -20 -20 -20 -19 -10 -20 3 9 10 -10 15 14 -12 -13 21
-20 -20 -20 -20 -20 -20 -20 -20 -20 -20 -20 -20 -0 0 -20 -20 -12 -6 20 6 22 17 -4 10 -20 -18 3 -19 8 -17 -20 -19 -20 -20 -20 -20 -20 -20 -17 -20 -7 23 24
-20 -20 -20 -20 -20 -20 -20 -20 -20 -20 -20 -20 -20 -20 -20 -20 -20 -20 -20 -20 -7 8 17 -20 -7 17 -14 -20 -0 -6 -13 3 -20 -20 -20 0 -20 -20 6 -17 -20 6 17
-20 -20 -20 -20 -20 -20 -20 -20 -20 -20 -20 -20 -20 -20 -20 -20 -20 -20 -20 -20 -20 7 2 4 0 19 -20 20 16 -12 9 -19 -20 -17 -20 3 4 4 3 -20 -20 -20 -20
-20 -20 -20 -20 -20 -20 -20 -20 -20 -20 -20 -20 -20 -20 -20 -20 -20 -20 -20 -1 -3 6 -20 -20 11 9 8 -7 4 16 -20 -13 -5 -10 -20 -2 9 9 12 -20 -20 -20 -20
-20 -20 -20 -20 -20 -20 -20 -20 -20 -20 -20 -20 -20 -20 -20 -20 -20 -20 -20 -20 17 18 -4 -9 12 7 13 10 -2 -0 -16 -18 -20 -17 -20 -20 -19 -20 -8 -20 -20 -20 -20
-20 -20 -20 -20 -20 -20 -20 -20 -20 -20 -20 -20 -20 -20 -20 -20 -20 -20 -20 -20 -15 -19 -9 -8 -1 10 -9 -16 -10 -3 -11 -3 3 -5 6 7 1 -8 -19 -20 -20 -20 -20
-20 -20 -20 -20 -20 -20 -20 -20 -20 -20 -20 -20 -20 -20 -20 -20 -20 -20 -20 -20 -20 -20 -5 13 15 9 12 -9 4 -1 15 -17 7 1 -8 -18 -20 -20 -20 -20 -20 -20 -20
-20 -20 -20 -20 -20 -20 -20 -20 -20 -20 -20 -20 -20 -20 -20 -20 -20 -20 -14 3 -20 -20 -20 -20 -12 -17 1 -1 -2 6 -20 -20 -5 -15 -13 -4 -20 -20 -20 -20 -20 -20 -20
-20 -20 -20 -20 -20 -20 -20 -20 -13 -20 -20 -20 -20 -20 -20 -20 -20 -20 -2 -8 11 -6 0 -13 -20 -20 -20 -16 -11 -20 -20 -20 -16 -19 -20 -20 -20 -20 -17 -8 -20 -20 -20
-20 -20 -20 -20 -20 -20 -20 -20 4 -20 -20 -20 -20 -20 -20 -20 -20 -20 -20 -15 10 -3 -13 -16 -20 -20 -20 -20 -20 -20 -20 -7 -20 -20 -20 -20 -20 -20 -20 -20 -20 -20 -20
-20 -20 -20 -20 -20 -20 -20 -20 -15 -20 -20 -20 -20 -20 -20 -20 -7 -20 -20 -20 3 8 11 9 11 10 -1 -15 -20 -20 -20 -20 -20 -20 -20 -10 -8 -20 -20 -20 -20 -20 -20
-20 -20 -20 -20 6 -20 -20 -20 -20 -20 -20 -20 -20 -20 -20 -11 1 -20 -20 -20 -20 -20 -20 -20 -20 -20 -10 -20 -18 4 -20 -14 -20 -20 -20 -11 -13 -13 -20 -20 -20 -20 -20

GFSMA_prec_radar_111.txt.gz
Reflectivity
-20 -20 -20 -20 -20 -20 -20 -20 -20 -20 -20 -20 -20 -20 -20 -20 -20 -20 -20 -20 -20 -20 -20 -20 -20 -20 -20 -20 -20 -20 -20 -20 -20 -20 -20 -20 -20 -20 -20 -20 -20 -20 -20
-20 -20 -20 -20 -20 -20 -20 -20 -20 -20 -20 -20 -20 -20 -20 -20 -20 -20 -20 -20 -20 -20 -20 -20 -20 -20 -20 -20 -20 -20 -20 -20 -20 -20 -20 -20 -20 -20 -20 -20 -20 -20 -20
-20 -20 -20 -20 -20 -20 -20 -20 -20 -20 -20 -20 -20 -20 -20 -20 -20 -20 -20 -20 -20 -20 -20 -20 -17 -4 -19 -2 -20 -20 -20 -20 -20 -20 -20 -20 -20 -20 -20 -20 -20 -20 -20
-20 -20 -20 -20 -20 -20 -20 -20 -20 -20 -20 -20 -20 -20 -20 -20 -20 -20 -20 -20 -20 -20 -20 -20 -20 -17 -20 -20 -4 -20 -18 -20 -20 -20 -20 -20 -20 -20 -20 -20 -20 -20 -20
-20 -20 -20 -20 -20 -20 -20 -20 -20 -20 -20 -20 -20 -20 -20 -20 -20 -20 -20 -20 -20 -20 -20 -20 -20 -20 -20 -5 -3 -20 -20 -20 -20 -20 -20 -20 -20 -20 -20 -20 -20 -20 -20
-20 -20 -20 -20 -20 -20 -20 -20 -20 -20 -20 -20 -20 -20 -20 -20 -20 -20 -20 -20 -20 -20 -20 -20 -20 -20 -20 -20 -20 -20 -20 -20 -20 -20 -20 -20 7 -20 -19 -20 -20 -20 -20
-20 -20 -20 -20 -20 -20 -20 -20 -20 -20 -20 -20 -20 -20 -20 -20 -20 -20 -2 -20 -20 -20 -20 -20 -20 -20 -20 -14 -20 -20 -20 -20 -20 -20 -20 -20 -3 -12 -20 -20 -8 -20 -20
-20 -20 -20 -20 -20 -20 -20 -20 -20 -20 -20 -20 -20 -20 -20 -20 -2 9 -14 -11 -20 4 -18 -20 -16 23 26 -5 -17 -20 -20 -20 -20 -20 -20 -20 8 -20 16 -5 -20 -20 -20
-20 -20 -10 2 -15 -20 -12 -20 -20 -19 -11 -13 12 16 -20 -20 -13 25 11 -5 -5 2 17 5 20 -4 16 -5 23 7 -20 -20 -20 -20 -20 -20 -20 -20 -20 10 13 -16 6
-16 -20 9 -10 5 14 27 4 12 17 26 28 12 -1 -8 -20 -20 -8 -3 8 -6 22 22 13 -15 2 3 9 21 26 11 -3 7 -14 -17 -20 -20 -16 -20 5 17 19 22
7 1 30 25 -14 6 13 36 29 27 18 1 8 10 -19 -18 -20 16 11 31 12 15 19 3 12 11 6 20 27 25 -16 10 -20 7 -19 -1 -6 -16 -19 -20 -4 -1 24
20 24 27 30 28 27 15 23 30 28 7 11 9 -15 -16 -20 -17 -20 -15 5 4 -9 6 -11 -2 7 6 -0 -5 20 5 -20 -20 -18 -18 -11 -5 10 6 -5 -20 3 -19
29 32 32 31 30 11 -2 -13 13 -10 -1 -16 -3 -11 -15 13 -20 -20 -9 -1 -3 -12 -11 13 21 -20 -15 -16 -4 9 10 23 -20 -6 13 -20 -20 -20 -20 2 -20 -8 -13
27 32 22 27 -8 -0 -20 -20 -20 -20 -20 -20 -20 -20 -20 -20 -19 3 10 9 2 -20 -20 -18 10 2 -8 10 16 17 12 -12 18 -20 -19 -20 -20 -20 -20 14 -19 -20 -20
32 -7 -8 -9 -14 -20 -20 -20 -20 -20 -20 -20 -20 -20 -20 -20 -20 -7 -13 8 15 9 3 -20 -15 -11 -20 -17 19 19 -4 26 7 7 -20 -20 -20 -20 -18 -5 -19 12 3
0 -20 -20 -20 -20 -20 -20 -20 -20 -20 -20 -20 -20 -20 -20 -20 -20 -20 -20 -16 -3 6 7 -20 -20 -20 -19 -3 -8 -5 -4 22 22 5 12 -20 -20 -20 -20 -20 -20 12 19
-20 -20 -20 -20 -20 -20 -20 -20 -20 -20 -20 -20 -20 -20 -20 -20 -20 -20 -20 -20 -20 -18 10 -17 -20 -13 -20 13 2 17 14 10 1 19 -3 -20 -5 -18 -4 -20 -20 -20 16
-20 -20 -20 -20 -20 -20 -20 -20 -20 -20 -20 -20 -20 -20 -20 -20 -20 -20 -20 -20 -20 -20 -0 -20 -19 -19 -20 -10 -20 -19 -15 14 8 10 10 -20 1 -3 -20 5 -20 -20 -20
-20 -20 -20 -20 -20 -20 -20 -20 -20 -20 -20 -20 -20 -20 -20 -20 -20 -20 -20 -20 -20 -20 -20 -11 4 -15 7 12 -7 -1 -11 -9 15 17 9 -20 -20 -19 8 8 -8 -20 -20
-20 -20 -20 -20 -20 -20 -20 -20 -20 -20 -20 -20 -20 -20 -20 -20 -20 -20 -20 -20 -20 -20 -20 -20 -20 -15 -7 -12 -8 -16 -7 -3 10 3 13 -20 -4 5 11 1 -12 -18 -20
-20 -20 -20 -20 -20 -20 -20 -20 -20 -20 -20 -20 -20 -20 -20 -20 -20 -20 -20 -20 -20 -20 -20 -20 -20 -17 1 0 14 8 -1 14 12 20 10 -7 -20 -4 -1 -2 -10 -10 -6
-20 -20 -20 -20 -20 -20 -20 -20 -20 -20 -20 -20 -20 -20 -20 -20 -20 -20 -20 -20 -20 -20 -20 -20 -20 -20 -10 -14 11 11 12 4 -10 -1 -19 -20 -20 -11 -1 10 -13 -14 -20
-20 -20 -20 -20 -20 -20 -20 -20 -20 -20 -20 -20 -20 -20 -20 -20 -20 -20 -20 -20 -8 7 10 -15 -20 -20 -20 -20 2 -15 -20 -20 -20 -20 -20 -20 -20 -20 -18 -7 13 2 -9
-20 -20 -20 -20 -20 -20 -20 -20 -20 -20 -20 -20 -20 -20 -20 -20 -20 -20 -20 -20 -20 -11 -5 12 1 -16 -20 -20 -17 8 -20 0 1 -19 -18 -20 -20 -20 -20 -20 -20 -20 -20
-20 -20 -20 -20 -20 -20 -20 -20 -20 -20 -20 -20 -20 -20 -20 -20 -20 -19 -20 -20 -20 -19 12 12 9 11 10 8 -7 -19 -20 -19 -20 -20 -20 -19 -20 -18 -13 -20 -20 -20 -12
-20 -20 -20 -20 -16 -20 -20 -20 -20 -20 -20 -20 -20 -20 -20 -20 -20 -20 -20 -20 -20 -20 5 9 2 6 7 -5 8 -20 14 -12 -15 -6 -12 -4 -20 -20 -16 -6 -20 -20 -20

GFSMA_prec_radar_114.txt.gz
Reflectivity
-7 -6 -4 1 -20 -20 -20 -20 -20 -20 -20 -20 -20 -20 -20 -20 -20 -20 -20 -18 -20 -20 -20 -20 -20 -20 -20 -20 -20 -20 -20 -20 -20 -20 -20 -20 -20 -20 -20 -20 -20 -20 -20
-20 -20 -20 -20 -20 -20 -20 -20 -20 -20 -20 -20 -20 -20 -20 -20 -20 -20 -20 -20 -20 -20 -20 -20 -20 -20 -20 -20 -20 -20 -20 -20 -20 -20 -20 -20 -20 -20 -20 -20 -20 -20 -20
-20 -20 -20 -20 -20 -20 -20 -20 -20 -20 -20 -20 -20 -20 -20 -20 -20 -20 -20 -20 -20 -20 -20 -19 25 -10 -20 -13 -20 -20 -20 -20 -20 -20 -20 -20 -20 -20 -20 -20 -20 -20 -20
-20 -20 -20 -20 -20 -20 -20 -20 -20 -20 -20 -20 -20 -20 -20 -20 -20 -20 -20 -20 -20 -20 -20 -20 -20 -20 -20 -20 -17 -20 -20 -20 -20 -20 -20 -20 -20 -20 -20 -20 -20 -20 -20
-20 -20 -20 -20 -20 -20 -20 -20 -20 -20 -20 -20 -20 -20 -20 -20 -20 -20 -20 -20 -20 -20 -20 -20 -20 -20 -12 -20 -9 -20 -20 -20 -20 -20 -20 -20 -20 -20 -20 -20 -20 -20 -20
-20 -20 -20 -20 -20 -20 -20 -20 -20 -20 -20 -20 -20 -20 -20 -20 -20 -20 -20 -20 -20 -20 -20 -20 -20 -20 -20 -20 -20 -3 -20 -20 -20 -14 -20 -20 -20 -20 -20 -20 -20 -20 -20
-20 -20 -20 -20 -20 -20 -20 -20 -20 -20 -20 -20 -20 -20 -20 -20 -20 -20 -20 -20 -20 -20 -20 -20 -20 -20 -20 -20 -20 1 -7 -4 -20 -20 9 -20 -3 -0 -20 -20 -20 -20 -20
-20 -20 -7 -20 -20 -20 -20 -20 -19 -20 -11 -20 -20 -20 -20 -20 -20 -20 -20 -20 -20 -20 -16 -17 -11 -20 8 18 11 12 6 -15 -17 -20 -20 -20 -20 -7 -7 -13 -20 -19 -20
-20 -20 -20 -20 -20 -20 -20 -18 -20 -20 -20 -20 -20 -8 -7 -4 -20 -20 -20 -20 -20 -20 -20 -20 -20 -8 19 14 4 16 -2 12 6 -20 -20 -20 -20 -20 16 -10 26 16 4
-20 -20 -17 -17 4 -20 -20 -20 -20 -20 -16 1 -14 -17 -20 9 11 0 -20 -20 -20 -20 -4 -6 -3 7 3 11 19 12 32 19 21 -18 -20 -15 -20 -20 -20 -19 6 -15 23
-18 9 -7 -11 -20 -20 -17 2 26 19 23 10 2 5 -0 -5 1 3 -8 -6 -20 0 16 14 9 5 -1 -5 -20 15 21 16 -9 -20 -19 -20 -20 4 -20 -18 -6 -1 12
18 25 25 22 -6 22 32 27 22 -8 7 9 9 7 -17 -20 -3 1 -10 -20 -20 -18 -0 -4 -17 -20 -17 3 18 16 5 2 32 1 -8 -13 -5 8 -6 -7 -20 -15 -5
6 22 21 24 29 29 39 27 11 6 -20 -7 8 16 12 -3 -0 -8 3 8 -1 -20 -15 -20 -20 -20 -19 -10 -10 -4 -20 -16 27 27 11 8 -20 -18 -20 -14 -20 -20 -20
11 -15 13 36 39 36 29 11 1 5 18 13 -3 12 3 -2 -2 6 -3 9 5 -7 -20 -20 -20 -20 -20 -20 -9 -10 -20 6 26 29 11 1 -2 -17 -20 -13 -13 -20 -20
34 15 31 37 32 30 10 -0 -20 -20 -20 -6 -20 -20 -20 -20 -20 -20 -9 1 9 -1 -20 -20 -20 -20 -20 -20 -20 -20 -3 16 16 -3 -17 7 2 5 -18 -1 -4 -19 -17
35 38 28 28 31 7 -0 -6 -7 -20 -20 -20 -20 -20 -20 -20 -20 -20 -20 -20 -20 -3 -17 -20 -20 -20 -20 -20 -20 -20 -20 -20 2 -5 9 33 18 -6 -14 -10 4 -12 19
30 31 24 22 6 4 2 -10 -20 -20 -20 -20 -20 -20 -20 -20 -20 -20 -20 -18 -20 -9 7 -20 -20 -20 -20 -20 -20 -18 -9 -20 -2 2 9 1 8 -20 -14 -2 -10 -4 19
13 7 0 -4 -8 -20 -20 -20 -20 -20 -20 -20 -20 -20 -20 -20 -20 -20 -20 -20 -20 -19 -2 -20 -20 -20 -20 -6 -20 -20 -20 -20 -20 12 4 11 -3 -7 -18 6 -11 0 10
-10 -20 -20 -19 -18 -20 -20 -20 -20 -20 -20 -20 -20 -20 -20 -20 -20 -20 -20 -20 -20 -20 6 -16 -20 -20 -20 -20 -20 -16 -17 -20 -1 26 17 14 -12 3 9 2 -16 4 -20
-20 -20 -20 -20 -20 -20 -20 -20 -20 -20 -20 -20 -20 -20 -20 -20 -20 -20 -20 -20 -19 -20 -20 -20 -18 -13 -20 -20 -20 -20 -20 -18 -11 6 21 16 4 7 -2 -18 -4 5 -20
-20 -20 -20 -20 -20 -20 -20 -20 -20 -20 -20 -20 -20 -20 -20 -20 -20 -20 -20 -20 -20 -20 -7 -18 -19 0 -20 -20 -12 -17 17 15 12 1 -4 -15 -6 -4 -20 7 -0 -16 5
-20 -20 -20 -20 -20 -20 -20 -20 -20 -20 -20 -20 -20 -20 -20 -20 -20 -20 -20 -20 -20 -20 -20 -3 -20 -18 4 -20 -10 -12 11 8 11 -1 0 8 -8 -16 -20 -20 -20 -12 -20
-20 -20 -20 -20 -20 -20 -20 -20 -20 -20 -20 -20 -20 -20 -20 -20 -20 -20 -20 -20 -20 -20 -20 -20 -20 -20 -20 -20 -20 -20 -20 -15 -3 16 -4 -13 -16 -20 -20 -20 -20 -20 -19
-20 -20 -20 -20 -20 -20 -20 -20 -20 -20 -20 -20 -20 -20 -20 -20 -20 -20 -20 -20 -20 -20 -20 -20 -6 -0 -20 -20 -20 -20 -20 -3 7 -9 -12 3 7 -2 -20 -20 -20 -5 -19
-20 -20 -20 -20 -20 -20 -20 -20 -20 -20 -20 -20 -20 -20 -20 -20 -20 -20 -20 -20 -20 -20 -20 -13 7 7 11 6 -11 -10 -12 -15 -5 -19 -20 5 -13 -20 -9 -20 -20 -20 -20
-20 -20 -20 -20 -20 -20 -20 -20 -20 -20 -20 -20 -20 -20 -20 -20 -20 -20 -20 -20 -20 -20 -20 -20 -20 2 5 3 3 -10 -20 -20 -20 -19 -20 -20 -20 -20 -20 -20 -20 -20 -20

GFSMA_prec_radar_117.txt.gz
Reflectivity
-20 -20 -4 -6 -20 -20 -20 -20 -20 -20 -20 -20 -20 -20 -20 -20 -20 -20 -20 -20 -20 -20 -20 -20 -20 -20 -20 -20 -20 -20 -20 -20 -20 -20 -20 -20 -20 -20 -20 -20 -20 -20 -20
-20 -20 -5 6 -20 -20 -20 -20 -20 -20 -20 -20 -20 -20 -20 -20 -20 -20 -20 -20 -20 -20 -20 -20 -20 -20 -20 -20 -20 -20 -20 -20 -20 -20 -20 -20 -20 -20 -20 -20 -20 -20 -20
-20 -20 -20 -20 -20 -20 -20 -20 -20 -20 -20 -20 -20 -20 -20 -20 -20 -20 -20 -20 -20 -20 -20 -20 8 -12 -20 -20 -20 -20 -20 -20 -20 -20 -20 -20 -20 -20 -20 -20 -20 -20 -20
-20 -20 -20 -20 -20 -20 -20 -20 -20 -20 -20 -20 -20 -20 -20 -20 -20 -20 -20 -20 -20 -20 -20 -20 -20 -20 -5 1 23 4 -13 -20 -20 -20 -20 -20 -20 -20 -20 -20 -20 -20 -20
-20 -20 -20 -20 -20 -20 -20 -20 -20 -20 -17 -20 -20 -20 -20 -20 -20 -20 -20 -20 -20 -20 -20 -20 -20 -20 -20 -20 -13 -1 -14 23 25 -20 -20 -20 -20 -20 -20 -20 -20 -20 -20
-20 -20 -20 -20 -20 -20 -20 -20 -20 -20 -19 -18 -20 -20 -20 -20 -20 -20 -20 -20 -20 -20 -20 -20 -20 -20 -20 -20 -20 -8 -20 -13 3 23 13 -20 -4 -20 -20 -20 -20 -20 -20
-20 -20 -20 -20 -20 -20 -20 -20 -20 -20 -20 -20 -20 -20 -20 -20 -20 -20 -20 -20 -20 -20 -20 -20 19 26 -20 -20 -20 -20 -12 -8 -1 -20 -20 -20 -8 26 22 -20 -20 -20 -20
-20 -20 -20 -20 -20 -20 -20 -20 -20 -20 -20 -20 -20 -20 -0 -18 -20 -20 -20 -20 -20 -20 -20 -20 6 -20 -19 20 19 16 -12 -20 10 8 -13 -11 -12 2 -2 27 13 -14 -12
-20 -20 -20 -20 -20 -20 -13 -20 -20 -20 -20 -20 -20 -11 -7 12 -1 -20 -20 -20 -20 -20 -20 -20 -20 -20 -20 -16 15 6 15 10 23 20 9 9 -9 -11 -20 6 27 5 17
-1 -20 -16 -20 -20 -20 -20 -20 -10 -5 29 24 -10 -20 1 -8 14 6 -20 -20 -20 -20 -20 -20 -4 -8 -9 3 3 -20 -15 -13 14 17 18 15 3 -20 -19 -20 -16 -9 -2
-6 -20 -20 -20 -20 -20 -20 -20 -18 -20 -18 -3 11 -3 -19 -19 -19 2 1 -16 -9 -18 -20 -20 -15 -5 6 -20 -20 -20 -20 -4 0 16 25 23 -20 -0 2 -11 -16 7 -7
-19 -20 -20 -20 -20 -20 -4 -14 22 27 24 4 -11 -14 -8 14 -7 -3 -2 -1 -1 -20 -20 -20 -20 -20 -20 -20 -20 -20 -20 -20 -20 -20 10 25 25 8 11 10 3 0 3
4 -3 -20 -20 -10 -18 -8 -14 10 34 18 12 -4 4 19 7 5 -15 -20 -20 -8 -12 -20 -20 -20 -20 -20 -20 -20 -20 -20 -20 -20 -20 -16 14 18 21 24 -3 2 2 -17
-7 -20 -15 5 23 2 11 8 35 17 -0 10 10 -4 10 -10 -20 -4 -11 -9 -14 -0 -20 -20 -20 -20 -20 -20 -20 -20 -20 -20 -20 -5 18 11 27 21 17 -8 1 -20 19
24 -18 -12 13 18 24 29 35 23 28 15 10 -18 -20 -20 -20 -20 -20 -20 3 11 -7 -20 -20 -6 -20 -20 -20 -17 -20 -20 7 -8 20 14 -16 -19 -18 19 23 -4 -1 -15
25 25 24 16 18 23 32 36 25 7 -5 -8 1 -14 -20 -20 -20 -20 -20 -20 -20 -13 -15 -20 -20 -20 -20 -20 -20 -20 -18 4 -11 13 17 8 -1 18 12 26 -12 -20 -20
33 34 35 35 29 37 33 29 1 -20 -20 -20 -20 -20 -20 -20 -20 -20 -20 -20 -5 -4 -15 -20 -20 -20 -20 -20 -20 -20 -20 -20 6 1 14 9 9 -20 6 10 -20 -20 -1
33 38 32 34 27 28 22 -2 -20 -20 -20 -20 -20 -20 -20 -20 -20 -20 -20 -20 -20 -19 -10 -20 7 -20 -20 -20 -20 -20 -20 -3 9 12 8 13 14 -12 1 -14 9 -20 5
10 19 7 14 17 16 -17 -20 -20 -20 -20 -20 -20 -20 -20 -20 -20 -20 -20 -20 -20 -16 -3 -17 -20 -14 -10 -14 -20 -20 -20 13 1 19 8 -0 12 9 -2 -10 14 14 10
21 25 15 13 -10 -20 -20 -20 -20 -20 -20 -20 -20 -20 -20 -20 -20 -20 -20 -20 -20 -20 -20 -20 -9 -20 -20 -19 -8 -20 -20 -20 -20 -11 12 18 7 15 4 -8 -3 -1 12
25 26 -4 -19 -15 -16 -20 -20 -20 -20 -20 -20 -20 -20 -20 -20 -20 -20 -20 -20 -20 -20 -20 -20 -18 -16 -20 -20 4 -18 -20 -20 -12 -3 17 16 7 -19 -14 -18 -11 -20 1
15 -20 -20 -20 -20 -20 -20 -20 -20 -20 -20 -20 -20 -20 -20 -20 -20 -20 -20 -20 -20 -20 -20 -20 -20 -20 -20 9 13 13 -16 -11 -10 -5 4 0 0 -10 -8 -16 4 7 -19
-8 -20 -20 -16 -20 -20 -20 -20 -20 -20 -20 -20 -20 -20 -20 -20 -20 -20 -20 -20 -20 -20 -20 -20 -20 -16 -20 -20 -10 -16 -20 -11 -4 4 4 -6 -6 -9 -18 -18 14 10 -4
-20 -20 -20 -20 -20 -20 -20 -20 -20 -20 -20 -20 -20 -20 -20 -20 -20 -20 -20 -20 -20 -20 -20 -20 -20 -20 -20 0 4 -20 -20 -15 -10 1 -2 -4 -7 -13 -20 -20 10 -1 -20
-20 -20 -20 -20 -20 -20 -20 -20 -20 -20 -20 -20 -20 -20 -20 -20 -20 -20 -20 -20 -20 -20 -20 -20 -20 -20 -20 8 7 -18 -9 -10 -12 -9 -6 13 9 -20 6 -20 -20 -19 -20
-20 -20 -20 -20 -20 -20 -20 -20 -20 -20 -20 -20 -20 -20 -20 -20 -20 -20 -20 -20 -20 -20 -20 -20 -20 -20 -20 -7 -1 -13 -13 -20 -6 12 7 9 -17 -9 -11 -20 -20 -20 -20